                ,  0.290,  0.386,  0.483,  0.580,  0.676,  0.773,  0.869,  0.966,  1.063,  1.159,  1.256,  1.352,  1.449,  1.545,  1.642,  1.739,  1.835,  1.932,  2.028,  2.125,  2.222,  2.318,  2.415,  2.511,  2.608,  2.705,  2.801,  2.898,  2.994,  3.091,  3.188,  3.284,  3.381,  3.477,  3.574,  3.671,  3.767,  3.864,  3.960,  4.057,  4.153,  4.250,  4.347,  4.443,  4.540,  4.636,  4.733,  4.830,  4.926,  5.023,  5.119,  5.216,  5.313,  5.409,  5.506,  5.602,  5.699,  5.796
2000/10/31 00:00,  999.0,    0.9,    0.4,   -0.1,  999.0,  999.0,    2.8,  999.0,  999.0,  999.0,  999.0,   -2.4,  999.0,  999.0,  999.0,  999.0,    5.3,    5.7,  999.0,  999.0,  999.0,  999.0,  999.0,  999.0,  999.0,  999.0,  999.0,  999.0,  999.0,  999.0,  999.0,  999.0,  999.0,  999.0,  999.0,  999.0,  999.0,  999.0,  999.0,  999.0,  999.0,  999.0,  999.0,  999.0,  999.0,  999.0,  999.0,  999.0,  999.0,  999.0,  999.0,  999.0,  999.0,  999.0,  999.0,  999.0,  999.0,  999.0
2000/10/31 00:10,  999.0,   -0.1,   -0.3,   -0.1,    1.3,    1.7,    0.7,   -1.4,    0.4,  999.0,  999.0,    4.0,  999.0,  999.0,  999.0,  999.0,  999.0,  999.0,  999.0,  999.0,  999.0,  999.0,  999.0,  999.0,  999.0,  999.0,  999.0,  999.0,  999.0,  999.0,  999.0,  999.0,  999.0,  999.0,  999.0,  999.0,  999.0,  999.0,  999.0,  999.0,  999.0,  999.0,  999.0,  999.0,  999.0,  999.0,  999.0,  999.0,  999.0,  999.0,  999.0,  999.0,  999.0,  999.0,  999.0,  999.0,  999.0,  999.0
2000/10/31 00:20,  999.0,  999.0,    0.5,    0.6,  999.0,  999.0,    5.3,    0.9,   -1.2,  999.0,  999.0,  999.0,  999.0,  999.0,  999.0,   12.3,  999.0,  999.0,  999.0,  999.0,  999.0,  999.0,   17.2,   16.5,   16.0,   15.9,   15.2,   13.1,   13.0,   13.1,   12.1,   11.0,   10.8,    9.8,    9.9,    8.3,    7.9,    5.5,    6.4,    8.0,    3.8,    4.6,    4.1,    2.7,    3.6,    2.6,    0.7,    0.8,    2.8,    1.7,    0.7,    1.0,    0.6,    0.6,    0.7,    0.9,    0.4,    0.9
2000/10/31 00:30,  999.0,   -0.8,   -0.1,    1.8,    0.9,   -4.7,   -2.0,   -1.0,  999.0,    0.1,  999.0,   -0.1,  999.0,    1.3,  999.0,  999.0,   -0.2,    0.2,  999.0,  999.0,  999.0,  999.0,   18.2,   17.3,   16.5,  999.0,   14.6,   13.2,  999.0,   12.1,   11.4,   10.6,    9.3,    8.1,    7.2,    7.0,    5.5,    6.4,    5.6,    4.7,    2.5,    2.3,    1.0,    0.6,    0.4,  999.0,    0.2,  999.0,    0.3,  999.0,  999.0,  999.0,    1.0,    1.0,  999.0,    0.5,    0.7,    0.9
2000/10/31 00:40,  999.0,   -0.0,    1.4,    2.1,   -0.9,   -1.3,   -0.4,   -0.2,   -0.6,   -0.4,    1.6,    2.0,  999.0,   -1.0,  999.0,  999.0,    8.1,  999.0,  999.0,  999.0,  999.0,  999.0,  999.0,   19.5,   18.2,   17.7,  999.0,   15.7,   14.2,   13.6,   12.8,   11.0,   10.9,    9.1,    8.0,    7.6,    7.2,    5.9,    4.4,    4.3,    1.7,    2.6,    0.8,    1.2,    1.6,    1.3,    1.2,    0.4,    1.1,    1.0,    1.3,    1.2,    1.3,    0.2,    0.6,    0.3,    0.3,    0.5
2000/10/31 00:50,  999.0,   -0.1,   -0.5,   -0.5,   -0.3,   -0.2,   -1.8,    1.4,   -0.0,   -0.3,    1.3,  999.0,    5.0,  999.0,  999.0,  999.0,  999.0,  999.0,  999.0,  999.0,  999.0,   19.3,   18.5,  999.0,   16.3,   14.5,   13.2,   15.9,   12.6,   12.2,    9.7,   10.1,    7.7,    6.9,    7.1,    5.9,    5.0,  999.0,    2.3,    3.1,    1.4,    1.0,    0.6,  999.0,    0.8,    1.0,    1.0,    1.1,    1.0,    1.2,    0.8,    0.6,    0.8,    1.2,  999.0,    1.0,    0.4,    0.3
2000/10/31 01:00,  999.0,  999.0,   -0.9,    0.0,   -1.7,   -2.3,    0.5,   -0.3,   -0.2,   -0.1,    0.7,    1.0,   -0.4,   -0.6,  999.0,  999.0,  999.0,  999.0,  999.0,  999.0,  999.0,  999.0,  999.0,   18.1,   17.4,   15.4,   14.9,  999.0,   11.4,   10.8,   10.3,    8.4,    8.5,    6.9,    6.7,    5.5,    3.4,    2.4,    1.7,    1.9,    0.3,    0.7,    0.6,    1.2,    0.1,    0.5,    0.5,    0.8,    0.2,    0.6,    1.0,    0.5,    0.6,   -0.1,    1.2,    1.1,    1.4,    1.1
2000/10/31 01:10,  999.0,    0.4,    0.3,   -1.1,   -1.9,   -1.1,   -1.2,   -1.5,   -2.1,   -1.5,    1.4,   -1.0,  999.0,  999.0,  999.0,    6.1,  999.0,  999.0,  999.0,  999.0,  999.0,  999.0,  999.0,   13.9,   10.8,   13.2,   10.2,    8.2,    8.1,    5.1,    7.8,    4.9,    4.0,    4.2,    2.9,    1.4,    2.1,    0.3,    0.6,    0.5,    0.7,  999.0,    0.6,    1.0,    0.7,    0.8,    1.0,    0.8,    0.7,    0.4,    0.4,    1.0,    0.4,    0.9,    0.9,    1.4,    0.9,    0.7
2000/10/31 01:20,  999.0,  999.0,    1.7,   -1.2,   -1.2,   -2.2,   -3.4,   -1.5,   -1.7,   -0.7,  999.0,    4.3,    0.6,   -0.1,  999.0,  999.0,  999.0,  999.0,  999.0,  999.0,   20.4,  999.0,  999.0,   18.1,   16.4,   15.3,   13.9,   13.3,  999.0,   11.0,  999.0,  999.0,  999.0,    7.0,    5.3,    4.1,    3.3,    2.1,    1.6,    0.7,    0.3,    0.6,    1.0,    1.4,  999.0,    0.7,    1.3,    0.9,    0.9,    0.8,    0.7,    0.8,    1.1,    1.0,    1.4,    0.9,   -0.2,    0.9
2000/10/31 01:30,  999.0,    0.1,    0.9,   -0.2,   -0.3,   -2.3,   -3.0,   -2.3,   -1.1,   -3.2,    0.4,  999.0,   -6.1,   -4.6,   -3.1,  999.0,   -2.1,   -3.1,  999.0,  999.0,  999.0,  999.0,  999.0,  999.0,  999.0,  999.0,  999.0,   11.7,  999.0,  999.0,  999.0,    7.0,  999.0,  999.0,    4.0,  999.0,  999.0,    0.9,  999.0,  999.0,    0.2,    0.8,  999.0,   -0.6,  999.0,    0.9,    0.3,  999.0,  999.0,    0.7,  999.0,  999.0,  999.0,  999.0,  999.0,  999.0,    0.9,  999.0
2000/10/31 01:40,  999.0,   -1.3,    1.2,   -0.2,   -1.4,   -3.1,   -2.2,   -0.5,   -1.0,   -0.6,   -1.0,  999.0,   -0.5,  999.0,   -0.0,  999.0,   -1.8,  999.0,  999.0,  999.0,  999.0,  999.0,  999.0,  999.0,  999.0,  999.0,  999.0,  999.0,  999.0,  999.0,  999.0,  999.0,  999.0,  999.0,  999.0,  999.0,  999.0,  999.0,  999.0,  999.0,  999.0,  999.0,  999.0,  999.0,  999.0,  999.0,  999.0,  999.0,  999.0,  999.0,  999.0,  999.0,  999.0,  999.0,  999.0,  999.0,  999.0,  999.0
2000/10/31 01:50,  999.0,    0.4,  999.0,   -0.4,   -2.5,   -2.4,   -7.3,  999.0,    0.4,    0.3,  999.0,  999.0,  999.0,  999.0,   -3.9,  999.0,  999.0,  999.0,   -1.3,    9.5,  999.0,  999.0,  999.0,  999.0,  999.0,  999.0,   31.9,   34.0,  999.0,  999.0,   38.1,   38.6,   40.5,  999.0,   42.2,  999.0,   42.7,  999.0,  999.0,   41.6,   41.9,  999.0,   42.0,   41.4,  999.0,  999.0,  999.0,  999.0,  999.0,  999.0,  999.0,  999.0,  999.0,  999.0,   41.7,  999.0,   41.4,  999.0
2000/10/31 02:00,  999.0,   -0.1,   -0.2,   -2.1,   -1.8,   -1.5,  999.0,   -0.1,   -0.5,    0.3,   -0.7,  999.0,  999.0,    4.4,  999.0,  999.0,  999.0,  999.0,  999.0,  999.0,  999.0,  999.0,  999.0,  999.0,  999.0,  999.0,   34.2,  999.0,   34.8,  999.0,   36.6,   38.7,   40.2,   40.4,   42.5,   41.7,   40.9,   41.7,  999.0,   41.3,   41.5,   41.7,   41.4,   41.3,   41.5,   41.9,   42.1,   42.0,  999.0,   42.7,   42.3,  999.0,   42.2,   41.7,   41.8,   42.2,   41.4,   41.3
2000/10/31 02:10,  999.0,    2.0,  999.0,    2.1,   -0.8,   -1.5,  999.0,  999.0,   -0.0,   -0.4,  999.0,   -0.2,    0.4,    3.1,    4.5,    2.8,    2.6,  999.0,  999.0,  999.0,  999.0,  999.0,  999.0,   29.6,  999.0,   32.0,   33.0,   32.2,   34.7,   36.6,   36.6,   37.6,   38.6,   38.2,   40.7,   39.7,   40.4,   41.3,  999.0,   41.6,  999.0,   41.8,   42.3,   41.7,   41.3,   41.5,   41.6,   41.0,   41.3,   41.7,   41.4,   41.8,   41.4,   41.3,   41.8,   41.8,   41.8,   42.1
2000/10/31 02:20,  999.0,    0.6,    0.4,   -0.1,   -0.6,   -6.5,   -2.4,  999.0,   -7.6,  999.0,   -0.5,   -0.9,   -2.9,  999.0,  999.0,    6.2,    7.1,  999.0,  999.0,  999.0,  999.0,  999.0,  999.0,   26.7,  999.0,   30.6,  999.0,   33.5,  999.0,  999.0,   37.3,   39.4,   40.5,  999.0,  999.0,  999.0,  999.0,  999.0,  999.0,  999.0,  999.0,   41.7,  999.0,  999.0,  999.0,   41.7,   41.5,  999.0,   41.2,  999.0,  999.0,  999.0,   41.7,   41.8,  999.0,  999.0,   42.4,   42.1
2000/10/31 02:30,  999.0,  999.0,    1.4,  999.0,   -1.2,   -2.1,  999.0,   -2.2,   -6.1,    1.3,  999.0,  999.0,  999.0,  999.0,  999.0,  999.0,  999.0,  999.0,  999.0,  999.0,  999.0,  999.0,  999.0,  999.0,  999.0,  999.0,  999.0,  999.0,  999.0,  999.0,  999.0,  999.0,  999.0,  999.0,  999.0,  999.0,  999.0,  999.0,  999.0,  999.0,   41.8,  999.0,   42.0,   41.9,   41.4,   41.7,  999.0,   41.2,   41.7,   41.8,   41.3,   41.5,   41.7,   41.8,   41.3,   41.5,   41.4,   41.6
2000/10/31 02:40,  999.0,  999.0,  999.0,   -0.9,   -1.5,   -3.0,  999.0,  999.0,  -10.9,  999.0,  999.0,  999.0,  999.0,  999.0,  999.0,  999.0,  999.0,  999.0,  999.0,  999.0,  999.0,  999.0,  999.0,  999.0,  999.0,  999.0,  999.0,  999.0,  999.0,  999.0,  999.0,  999.0,  999.0,  999.0,  999.0,  999.0,  999.0,  999.0,  999.0,  999.0,  999.0,  999.0,  999.0,  999.0,  999.0,  999.0,   42.0,  999.0,   42.3,  999.0,   41.5,  999.0,   41.5,   41.6,   41.6,   42.0,   41.6,  999.0
2000/10/31 02:50,  999.0,  999.0,  999.0,  999.0,   -2.2,  999.0,   -8.7,  -13.5,   -7.0,    2.1,  -10.0,  999.0,   -5.3,   -6.5,  999.0,  999.0,  999.0,  999.0,  999.0,  999.0,  999.0,   25.4,   26.1,  999.0,  999.0,  999.0,  999.0,  999.0,  999.0,  999.0,   36.4,  999.0,  999.0,   39.7,  999.0,  999.0,  999.0,  999.0,   41.2,   40.6,   40.9,  999.0,  999.0,  999.0,  999.0,  999.0,  999.0,  999.0,  999.0,  999.0,  999.0,  999.0,  999.0,  999.0,  999.0,  999.0,  999.0,  999.0
2000/10/31 03:00,  999.0,  999.0,  999.0,  999.0,  999.0,  999.0,   -2.9,   -7.7,  999.0,  999.0,  999.0,   -4.7,  999.0,  999.0,  999.0,  999.0,  999.0,  999.0,  999.0,  999.0,  999.0,  999.0,  999.0,  999.0,  999.0,  999.0,  999.0,  999.0,  999.0,  999.0,  999.0,  999.0,  999.0,  999.0,  999.0,  999.0,   20.7,  999.0,  999.0,  999.0,  999.0,  999.0,  999.0,  999.0,  999.0,  999.0,  999.0,  999.0,  999.0,  999.0,  999.0,  999.0,  999.0,  999.0,  999.0,  999.0,  999.0,  999.0
2000/10/31 03:10,  999.0,  999.0,  999.0,   -0.0,   -6.9,   -7.9,   -4.7,   -9.4,   -1.1,  999.0,  999.0,  999.0,    3.1,   -8.2,    5.8,  999.0,  999.0,   -2.7,  999.0,  999.0,  999.0,  999.0,  999.0,  999.0,  999.0,  999.0,  999.0,  999.0,  999.0,  999.0,  999.0,  999.0,  999.0,   -1.7,  999.0,  999.0,   -0.0,  999.0,   -0.8,  999.0,   -0.6,  999.0,  999.0,  999.0,  999.0,  999.0,  999.0,  999.0,  999.0,  999.0,  999.0,  999.0,  999.0,  999.0,  999.0,  999.0,  999.0,  999.0
2000/10/31 03:20,  999.0,   -2.4,  999.0,  999.0,   -0.4,   -1.1,   -0.5,  999.0,    1.2,   -0.0,   -5.8,    6.5,   -1.6,   -1.5,   -2.5,   -2.6,   -1.1,   -2.4,  999.0,  999.0,  999.0,  999.0,  999.0,  999.0,  999.0,  999.0,   -4.3,  999.0,  999.0,  999.0,   -0.9,   -0.7,  999.0,   -0.7,  999.0,  999.0,   -1.2,  999.0,   -0.8,  999.0,  999.0,   -1.1,   -0.4,  999.0,  999.0,  999.0,  999.0,  999.0,  999.0,  999.0,  999.0,  999.0,   -0.8,  999.0,  999.0,  999.0,  999.0,  999.0
2000/10/31 03:30,  999.0,   -1.8,  999.0,  999.0,   -1.9,   -1.7,   -2.9,  999.0,   -1.7,  999.0,  999.0,   -2.8,   -2.2,   -1.7,   -1.9,   -1.4,   -0.7,    1.2,  999.0,  999.0,  999.0,  999.0,  999.0,  999.0,  999.0,  999.0,  999.0,  999.0,  999.0,  999.0,  999.0,  999.0,  999.0,  999.0,  999.0,  999.0,   -0.7,   -0.7,  999.0,   -1.0,   -0.6,  999.0,  999.0,   -0.5,  999.0,  999.0,  999.0,  999.0,  999.0,  999.0,  999.0,  999.0,   -0.6,  999.0,  999.0,  999.0,  999.0,  999.0
2000/10/31 03:40,  999.0,  999.0,  999.0,    0.4,    0.9,    0.7,    0.6,    4.9,   -6.3,  999.0,   -4.9,  999.0,    1.1,  999.0,   -1.2,    0.6,   -0.6,   -0.6,  999.0,  999.0,  999.0,  999.0,  999.0,  999.0,  999.0,  999.0,  999.0,  999.0,  999.0,  999.0,  999.0,  999.0,  999.0,   -0.4,  999.0,  999.0,   -0.7,   -0.6,   -0.6,   -0.2,   -0.9,   -0.3,   -0.4,   -1.1,  999.0,  999.0,    0.4,   -0.2,  999.0,  999.0,   -0.1,  999.0,   -0.9,   -0.5,  999.0,   -0.2,  999.0,   -1.1
2000/10/31 03:50,  999.0,  999.0,  999.0,   -0.2,   -1.0,   -1.1,  999.0,  999.0,    1.0,    0.4,  999.0,  999.0,   -1.4,   -1.9,   -1.2,   -2.4,   -3.2,   -2.8,  999.0,  999.0,  999.0,  999.0,  999.0,  999.0,  999.0,  999.0,  999.0,  999.0,  999.0,  999.0,  999.0,  999.0,  999.0,  999.0,  999.0,  999.0,  999.0,  999.0,  999.0,  999.0,  999.0,  999.0,  999.0,  999.0,  999.0,  999.0,  999.0,  999.0,  999.0,  999.0,  999.0,  999.0,  999.0,  999.0,  999.0,  999.0,  999.0,  999.0
2000/10/31 04:00,  999.0,  999.0,  999.0,  999.0,  999.0,   -3.0,   -2.3,   -4.9,  999.0,  999.0,   -2.1,  999.0,  999.0,   -1.5,   -0.6,   -1.2,   -0.5,  999.0,  999.0,  999.0,  999.0,  999.0,  999.0,  999.0,  999.0,  999.0,  999.0,  999.0,  999.0,  999.0,  999.0,  999.0,  999.0,  999.0,  999.0,  999.0,  999.0,  999.0,  999.0,  999.0,  999.0,  999.0,  999.0,  999.0,  999.0,  999.0,  999.0,  999.0,  999.0,  999.0,  999.0,  999.0,  999.0,  999.0,  999.0,  999.0,  999.0,  999.0
2000/10/31 04:10,  999.0,  999.0,  999.0,  999.0,   -0.4,   -0.0,   -1.2,  999.0,   -1.8,   -1.5,   -0.7,   -2.4,   -0.9,   -2.2,   -2.3,   -3.1,   -1.5,   -3.3,  999.0,  999.0,  999.0,  999.0,  999.0,  999.0,  999.0,  999.0,  999.0,  999.0,  -11.5,  999.0,   -6.1,   -6.7,   -3.8,   -6.7,   -4.0,   -0.8,   -0.8,  999.0,   -2.8,   -3.4,   -0.8,   -0.8,   -1.0,   -0.8,   -0.8,   -0.9,   -0.2,   -0.7,  999.0,   -0.2,   -0.7,  999.0,   -0.9,   -1.2,  999.0,   -0.1,   -0.6,   -0.9
2000/10/31 04:20,  999.0,   -4.3,  999.0,   -0.6,    0.7,  999.0,   -0.1,  999.0,  999.0,  -20.7,    0.0,   -5.9,  999.0,   -1.5,   -1.6,  999.0,   -1.1,   -0.1,    0.9,  999.0,  999.0,  999.0,  999.0,  999.0,  999.0,  999.0,  999.0,  999.0,  999.0,  999.0,  999.0,  999.0,  999.0,  999.0,  999.0,   -5.1,  999.0,   -4.0,  999.0,   -1.8,   -1.6,   -0.9,  999.0,  999.0,    0.0,  999.0,  999.0,  999.0,  999.0,   -0.3,  999.0,   21.0,   -0.6,  999.0,   -1.1,   -0.8,  999.0,   -0.5
2000/10/31 04:30,  999.0,    2.7,  999.0,   -2.2,   -1.5,   -1.0,   -2.4,   -3.7,   -3.7,  999.0,  999.0,  999.0,  -22.1,   -1.8,   -1.4,   -0.9,   -1.1,   -0.6,   -1.7,    0.2,  999.0,  999.0,  999.0,  999.0,    2.1,  999.0,  999.0,  999.0,  999.0,  999.0,  999.0,  999.0,  999.0,    1.2,  999.0,  999.0,   16.3,  999.0,  999.0,  999.0,   -2.1,   -0.9,  999.0,   -1.2,    0.1,   -0.6,  999.0,  999.0,   -0.6,   -1.5,   -0.6,   -0.5,   -0.4,   -1.2,   -0.8,   -0.6,  999.0,   -1.0
2000/10/31 04:40,  999.0,  999.0,  999.0,  999.0,    0.3,   -0.5,  -10.4,  999.0,  -18.1,  -20.3,  999.0,  999.0,  -22.1,  999.0,  -21.4,  -21.0,  -21.4,  -22.1,  999.0,  999.0,  -19.2,  999.0,  999.0,  999.0,  999.0,  999.0,  999.0,  999.0,  999.0,  999.0,  999.0,   -7.5,   -6.8,   36.2,   -4.7,  999.0,   -2.6,  999.0,  999.0,  999.0,  999.0,   -1.2,  999.0,   -0.6,  999.0,  999.0,  999.0,  999.0,   -1.0,  999.0,   42.9,   20.5,   -0.7,  999.0,  999.0,   -0.4,  999.0,   -1.1
2000/10/31 04:50,  999.0,    1.0,  999.0,   -1.7,   -1.1,   -1.6,  999.0,  999.0,  999.0,   -3.4,   -3.2,  999.0,  999.0,  999.0,  999.0,   -0.8,  999.0,  999.0,  999.0,  999.0,  999.0,  999.0,  -17.1,  -16.5,  999.0,  -14.2,  999.0,  -11.7,  -10.9,  -10.0,   -8.9,   -7.5,   -7.4,   -5.6,   -4.5,   -4.1,   -2.4,   -2.0,   -1.3,   -0.7,   -0.6,   -1.0,   -0.6,   -0.6,   -0.3,   -0.4,   -0.7,   -0.8,   -0.9,   -0.6,   -0.7,  999.0,   -1.1,   -0.2,   -0.3,  999.0,   -0.7,   -0.9
2000/10/31 05:00,  999.0,    2.2,    0.2,    2.4,   -0.0,   -1.1,   22.2,    8.3,    3.3,    8.4,  999.0,   -7.8,    7.7,   -5.6,  999.0,  999.0,   22.3,   -1.4,   -0.4,  999.0,   25.6,  999.0,  -15.8,   28.3,  999.0,  999.0,  -12.4,  -12.3,   11.0,    4.5,  -10.7,   14.0,   15.0,   -5.5,   -6.8,   -4.5,  999.0,   19.2,  999.0,   -2.4,   41.5,   20.2,  999.0,    7.9,   20.6,   -0.7,  999.0,  999.0,   -0.8,   -0.4,  999.0,   20.4,  999.0,  999.0,   -0.1,   -1.2,   -0.2,   -1.0
2000/10/31 05:10,  999.0,   -1.0,   -0.8,   -0.2,   -0.3,   -0.4,   -3.2,  999.0,   -4.7,   -4.2,  999.0,  999.0,  999.0,  999.0,  999.0,  -20.7,  999.0,  999.0,  999.0,  999.0,  -18.6,  -17.6,  -16.2,  999.0,  999.0,  -13.3,  -11.8,  999.0,   -9.8,   -9.4,   -8.5,  999.0,  999.0,   -5.1,  999.0,   -3.4,   -3.4,   -2.1,   -1.5,   -1.1,   -1.3,   -0.6,   -0.6,   -0.7,   -1.0,   -0.5,  999.0,  999.0,  999.0,   -0.4,   -0.2,  999.0,  999.0,   -0.5,   -0.4,  999.0,  999.0,  999.0
2000/10/31 05:20,  999.0,   -0.5,    0.2,   -0.2,   -0.6,  999.0,  999.0,  999.0,  999.0,  999.0,  999.0,  999.0,  999.0,  999.0,  999.0,  999.0,  999.0,  999.0,  999.0,  999.0,  999.0,  999.0,  999.0,  999.0,  999.0,  999.0,  999.0,  999.0,  999.0,  999.0,  999.0,  999.0,  999.0,  999.0,  999.0,  999.0,  999.0,  999.0,  999.0,  999.0,  999.0,  999.0,  999.0,  999.0,  999.0,  999.0,  999.0,  999.0,  999.0,  999.0,  999.0,  999.0,  999.0,  999.0,  999.0,  999.0,  999.0,  999.0
2000/10/31 05:30,  999.0,   -0.2,    0.1,    0.4,    0.1,   -2.9,  999.0,  999.0,  999.0,  999.0,  999.0,  999.0,  999.0,  999.0,  999.0,  999.0,  999.0,  999.0,  999.0,  999.0,  999.0,  999.0,  999.0,  999.0,  999.0,  999.0,  999.0,  999.0,  999.0,  999.0,  999.0,  999.0,  999.0,  999.0,  999.0,  999.0,  999.0,  999.0,  999.0,  999.0,  999.0,  999.0,  999.0,  999.0,  999.0,  999.0,  999.0,  999.0,  999.0,  999.0,  999.0,  999.0,  999.0,  999.0,  999.0,  999.0,  999.0,  999.0
2000/10/31 05:40,  999.0,  999.0,  999.0,    0.4,    0.7,    0.3,  999.0,   -5.0,  999.0,  999.0,   -4.0,   -4.8,  999.0,  999.0,  999.0,  999.0,  999.0,  999.0,  999.0,  999.0,  999.0,  999.0,  999.0,  999.0,  999.0,  999.0,  999.0,  999.0,  999.0,  999.0,  999.0,  999.0,  999.0,  999.0,  999.0,  999.0,  999.0,  999.0,  999.0,  999.0,  999.0,  999.0,  999.0,  999.0,  999.0,  999.0,  999.0,  999.0,  999.0,  999.0,  999.0,  999.0,  999.0,  999.0,  999.0,  999.0,  999.0,  999.0
2000/10/31 05:50,  999.0,  999.0,  999.0,  999.0,   -1.0,  999.0,   -4.6,   -3.9,  999.0,  999.0,  999.0,  999.0,  999.0,  999.0,  999.0,  999.0,   -1.0,  999.0,  999.0,  999.0,  999.0,  999.0,  999.0,  999.0,  999.0,  999.0,  999.0,  999.0,  999.0,  999.0,  999.0,  999.0,  999.0,  999.0,  999.0,  999.0,  999.0,  999.0,  999.0,  999.0,  999.0,  999.0,  999.0,  999.0,  999.0,  999.0,  999.0,  999.0,  999.0,  999.0,  999.0,  999.0,  999.0,  999.0,  999.0,  999.0,  999.0,  999.0
2000/10/31 06:00,  999.0,  999.0,   -3.4,   -4.9,   -0.4,    0.4,    1.5,   -5.2,  999.0,   -3.6,  999.0,  999.0,    6.0,   -1.0,  999.0,  999.0,   -3.3,   -3.0,  999.0,  999.0,  999.0,  999.0,  999.0,  999.0,  999.0,  999.0,  999.0,  999.0,  999.0,  999.0,  999.0,  999.0,  999.0,  999.0,  999.0,  999.0,  999.0,  999.0,  999.0,  999.0,  999.0,  999.0,  999.0,  999.0,  999.0,  999.0,  999.0,  999.0,  999.0,  999.0,  999.0,  999.0,  999.0,  999.0,  999.0,  999.0,  999.0,  999.0
2000/10/31 06:10,  999.0,  999.0,    4.6,    2.3,  999.0,    1.5,   -5.2,  999.0,   -3.1,  999.0,  999.0,  999.0,  999.0,  999.0,   -1.0,   -0.8,   -1.2,   -0.6,  999.0,  999.0,  999.0,  999.0,  999.0,  999.0,  999.0,  999.0,  999.0,  999.0,  999.0,  999.0,  999.0,  999.0,  999.0,  999.0,  999.0,  999.0,  999.0,  999.0,  999.0,  999.0,  999.0,  999.0,  999.0,  999.0,  999.0,  999.0,  999.0,  999.0,  999.0,  999.0,  999.0,  999.0,  999.0,  999.0,  999.0,  999.0,  999.0,  999.0
2000/10/31 06:20,  999.0,   -3.2,   -2.1,   -1.2,   -3.5,  999.0,   -5.9,   -7.1,  999.0,   -4.8,   -4.3,   -6.2,    0.0,   -2.2,   -1.0,   -1.3,   -1.9,   -1.3,  999.0,    0.5,  999.0,  999.0,  999.0,  999.0,  999.0,  999.0,  999.0,  999.0,  999.0,  999.0,  999.0,  999.0,  999.0,  999.0,  999.0,  999.0,  999.0,  999.0,  999.0,  999.0,  999.0,  999.0,  999.0,  999.0,  999.0,  999.0,  999.0,  999.0,  999.0,  999.0,  999.0,  999.0,  999.0,  999.0,  999.0,  999.0,  999.0,  999.0
2000/10/31 06:30,  999.0,  999.0,   -0.5,   -1.1,   -3.3,   -2.7,   -6.3,    0.2,   -0.9,  999.0,   -2.3,  999.0,   -2.5,   -2.8,   -2.8,   -0.7,   -0.5,   -1.2,   -1.3,   -0.6,    1.0,  999.0,  999.0,  999.0,  999.0,  999.0,  999.0,  999.0,  999.0,  999.0,  999.0,  999.0,  999.0,  999.0,  999.0,  999.0,  999.0,  999.0,  999.0,  999.0,  999.0,  999.0,  999.0,  999.0,  999.0,  999.0,  999.0,  999.0,  999.0,  999.0,  999.0,  999.0,  999.0,  999.0,  999.0,  999.0,  999.0,  999.0
2000/10/31 06:40,  999.0,   -0.1,   -1.3,   -1.1,   -0.6,   -2.4,   -4.5,   -4.6,  999.0,  999.0,  999.0,  999.0,  999.0,  999.0,   -0.3,  999.0,  999.0,    0.1,  999.0,  999.0,  999.0,  999.0,  999.0,  999.0,  999.0,  999.0,  999.0,  999.0,  999.0,  999.0,  999.0,  999.0,  999.0,  999.0,  999.0,  999.0,  999.0,  999.0,  999.0,  999.0,  999.0,  999.0,  999.0,  999.0,  999.0,  999.0,  999.0,  999.0,  999.0,  999.0,  999.0,  999.0,  999.0,  999.0,  999.0,  999.0,  999.0,  999.0
2000/10/31 06:50,  999.0,    0.6,    0.6,  999.0,   -1.5,   -5.4,   -6.1,   -7.9,    3.4,   -5.5,    2.6,  999.0,   -6.6,   -6.5,  999.0,  999.0,   -0.8,  999.0,  999.0,  999.0,  999.0,  999.0,   -8.8,  999.0,  999.0,  999.0,  999.0,  999.0,  999.0,  999.0,  999.0,  999.0,  999.0,  999.0,  999.0,  999.0,  999.0,  999.0,  999.0,  999.0,  999.0,  999.0,  999.0,  999.0,  999.0,  999.0,  999.0,  999.0,  999.0,  999.0,  999.0,  999.0,  999.0,  999.0,  999.0,  999.0,  999.0,  999.0
2000/10/31 07:00,  999.0,    0.3,   -0.4,   -1.7,    0.8,   -1.4,   -6.1,   -8.4,   -7.9,   -6.0,   -5.4,  999.0,  999.0,  999.0,  999.0,   -0.4,  999.0,  999.0,  999.0,  999.0,  999.0,  999.0,  999.0,  -22.7,  -25.0,  999.0,  -25.5,  -26.7,  999.0,  999.0,  -30.1,  -31.3,  -31.2,  -32.3,  -33.1,  -34.9,  -35.7,  -35.3,  -36.8,  -37.8,  -36.2,  -40.3,  -37.8,  -41.5,  -40.4,  -41.4,  -40.7,  -41.2,  -41.7,  -41.7,  -41.5,  -41.5,  -41.0,  999.0,  -41.7,  -42.2,  -41.8,  -41.5
2000/10/31 07:10,  999.0,   -0.4,    0.1,    0.8,   -0.2,   -0.9,   -2.4,   -3.9,   -7.3,  999.0,  -10.6,  999.0,   -4.9,  999.0,  999.0,  999.0,  999.0,  999.0,  999.0,  999.0,  999.0,  999.0,  -24.0,  -24.3,  -26.0,  -27.9,  -28.5,  -29.5,  999.0,  999.0,  -31.7,  -31.4,  -32.2,  -35.0,  -32.6,  -35.0,  -36.5,  -35.4,  999.0,  -40.7,  -37.8,  -37.6,  -40.8,  -42.5,  -41.9,  -41.2,  -42.0,  -42.2,  999.0,  -42.2,  -42.1,  -42.1,  999.0,  -41.6,  -41.9,  -41.9,  999.0,  -41.8
2000/10/31 07:20,  999.0,   -0.0,    1.2,    1.0,    0.1,   -0.4,   -2.8,   -4.5,   -6.4,  999.0,  999.0,  999.0,  999.0,  999.0,  999.0,  999.0,  999.0,  999.0,  999.0,  999.0,  999.0,  999.0,  -25.1,  -24.1,  999.0,  -27.7,  -29.9,  -29.7,  -32.3,  -32.0,  -32.7,  -34.8,  999.0,  -35.9,  -36.5,  -36.5,  -40.0,  -39.3,  -41.3,  999.0,  -41.4,  -41.4,  -41.4,  -42.0,  -42.7,  -42.2,  -41.9,  -41.6,  -41.6,  -41.1,  999.0,  -41.8,  -42.0,  -41.5,  -41.2,  -41.7,  -42.0,  -41.9
2000/10/31 07:30,    0.2,    0.2,    0.2,    0.7,    0.8,   -2.5,   -1.5,   -3.1,   -2.6,  999.0,  999.0,  999.0,  999.0,    0.1,  999.0,  -21.1,  999.0,  -21.2,  999.0,  -20.5,  -22.3,  -23.3,  -24.2,  999.0,  -26.8,  -27.7,  -27.5,  999.0,  -33.3,  -16.0,  -35.4,  -35.9,  -28.0,  -25.3,  -40.6,  -40.7,  -42.0,  -41.8,  -42.6,  -42.2,  -41.8,  -41.9,  -41.9,  -41.3,  -42.7,  -41.6,  -41.6,  -41.6,  999.0,  -42.2,  -42.2,  -42.5,  -31.4,  -42.2,  -41.9,  -41.2,  -41.5,  -20.4
2000/10/31 07:40,  999.0,    1.0,    0.7,    1.0,   -0.7,   -2.1,   -2.5,   -4.1,   -3.3,  999.0,   -2.8,   -1.8,   -2.2,   -2.6,   -0.9,  999.0,  999.0,  -20.7,  999.0,  -20.8,  -22.4,  999.0,  -25.2,  -27.3,  -28.1,  -29.7,  -32.3,  999.0,  -33.7,  -36.2,  -37.1,  -38.8,  -41.9,  -40.4,  -41.2,  -42.1,  -41.9,  -41.5,  -41.9,  -42.1,  -41.6,  -41.7,  999.0,  -41.8,  -41.9,  -41.3,  -41.8,  -41.9,  -41.6,  -41.8,  -41.5,  -42.1,  999.0,  -41.4,  -41.7,  -41.6,  -41.6,  -42.4
2000/10/31 07:50,  999.0,    0.1,    0.8,    0.3,   -0.3,   -1.5,   -2.2,   -2.7,    0.3,   -3.4,   -0.4,  999.0,    0.7,  999.0,  -22.0,  999.0,  999.0,  -21.7,  999.0,  -11.5,   -4.9,  -23.7,  -23.4,  -25.6,  -28.5,  -29.8,  -30.9,  -33.9,  999.0,  -37.0,  999.0,  999.0,  -41.2,  999.0,  -42.3,  -42.1,  -42.0,  -41.7,  -41.6,  -41.9,  -42.4,  -42.3,  -42.1,  -41.7,  -41.4,  -42.2,  -42.4,  -41.9,  -42.5,  999.0,  -42.3,  -42.4,  999.0,  -41.6,  -42.1,  -42.0,  -41.7,  -41.5
2000/10/31 08:00,  999.0,    0.2,    1.1,    0.9,   -0.2,   -1.3,   -1.6,  999.0,  999.0,  999.0,   -3.5,   -3.2,   -2.4,   -1.2,  999.0,  999.0,  999.0,  999.0,  999.0,  999.0,  999.0,  999.0,  999.0,  -29.2,  -29.7,  -31.8,  -33.3,  -35.0,  -35.9,  -36.9,  -39.5,  999.0,  -41.2,  -41.6,  -42.0,  -42.1,  -41.8,  -41.7,  999.0,  -41.5,  999.0,  -41.5,  -41.8,  -41.9,  -41.6,  -41.6,  -42.0,  999.0,  -41.4,  -41.8,  -41.2,  999.0,  -41.1,  -42.0,  -41.7,  -42.5,  -42.2,  -41.9
2000/10/31 08:10,  999.0,    1.0,    0.8,    0.5,   -0.4,   -1.1,   -1.8,   -3.8,    0.5,   -2.8,   -3.4,   -2.5,  999.0,  999.0,  999.0,  999.0,   -0.2,  999.0,  999.0,  999.0,  999.0,  -20.6,  999.0,  -23.8,  -27.5,  -31.3,  -35.3,  -33.3,  -34.9,  999.0,  -39.8,  -39.9,  -41.8,  -42.3,  -41.7,  999.0,  -42.3,  999.0,  -42.4,  -41.9,  -42.3,  -42.2,  -41.9,  -42.0,  -41.7,  -41.9,  -42.4,  -42.0,  -41.5,  -42.0,  -42.3,  -42.0,  -41.8,  -41.9,  -41.7,  -42.3,  -41.8,  -42.0
2000/10/31 08:20,  999.0,    0.9,    0.4,    0.2,   -0.3,   -1.4,  999.0,    0.1,   -1.2,   -4.4,   -1.7,  999.0,  999.0,  -21.3,  -20.9,  999.0,  -21.9,  999.0,  -23.5,  -21.4,  -24.6,  999.0,  -26.3,  -25.3,  -34.0,  -30.3,  -35.5,  -37.1,  -39.9,  -42.1,  -41.9,  -42.0,  -42.0,  -41.6,  -42.0,  -42.7,  -42.0,  -41.5,  -41.5,  -41.9,  -41.6,  -41.9,  -41.9,  -41.5,  999.0,  -42.0,  -41.8,  -42.5,  999.0,  -41.3,  -41.8,  -42.2,  -41.4,  -41.8,  -42.0,  -42.3,  -41.5,  -41.3
2000/10/31 08:30,  999.0,    1.8,    1.0,    2.1,   -0.8,  999.0,   -2.6,  999.0,   -5.6,   -5.5,  999.0,  999.0,  -21.4,  -20.8,  -21.6,  -21.7,  -21.3,  -21.9,  999.0,  -24.2,  -26.4,  -20.8,  -29.7,  999.0,  -29.8,  -32.9,  -34.2,  -37.0,  -38.5,  -40.0,  -41.8,  -41.6,  -41.7,  -41.9,  -41.9,  -42.1,  -41.7,  -42.0,  -41.9,  -41.5,  -41.8,  -42.2,  -41.8,  -41.5,  -41.6,  -41.2,  -41.9,  -41.9,  999.0,  -41.6,  -42.0,  -41.8,  -41.7,  -41.6,  -41.4,  -42.0,  -42.1,  -41.0
2000/10/31 08:40,  999.0,   -0.8,    2.3,    0.9,   -0.6,  -10.8,  -10.4,  -20.0,  -20.1,    0.4,   21.0,   21.5,   20.9,   -0.7,  -23.6,   19.9,   19.5,   -1.8,  -25.7,  -26.7,   20.3,   17.7,   17.7,   -4.7,   14.4,   -1.3,  -11.1,  -11.5,   10.2,    0.2,   -5.7,    5.4,  -18.0,  -10.3,  -41.5,   -9.2,    0.6,  -20.6,    0.6,    1.6,    0.6,  -10.0,    0.7,  -20.9,    0.7,   -6.6,  -20.5,    0.7,  -21.2,  -20.1,    0.6,  -20.3,    0.9,  999.0,  -42.4,  999.0,  999.0,    0.7
2000/10/31 08:50,  999.0,    1.4,    0.5,    0.3,  -10.6,   21.0,  -20.8,   -6.7,   21.1,   -7.1,   -0.0,   -7.1,   21.6,   -0.5,  -11.1,  999.0,   10.5,   21.1,   21.5,  999.0,   21.4,   21.2,   20.2,   18.8,   17.1,  999.0,   15.8,   13.1,   13.0,   10.2,    7.2,    8.3,    8.6,    6.9,  999.0,    0.6,    1.1,    3.1,    1.5,    0.3,    0.5,    0.0,  999.0,  999.0,  -42.7,  999.0,    0.9,  999.0,    0.6,    0.5,  -42.2,    0.7,    0.9,  -41.9,  999.0,  999.0,  -42.4,    0.8
2000/10/31 09:00,  999.0,  999.0,  999.0,   -0.6,   -1.0,   -0.7,   -0.2,   -0.8,  999.0,  999.0,  999.0,  999.0,  999.0,  999.0,  999.0,  -21.8,  999.0,  999.0,  999.0,  -18.2,  999.0,   25.5,   26.3,   27.3,   27.6,   29.0,   29.0,   30.0,   30.3,   31.3,   34.1,   35.1,   33.5,   31.6,   32.3,   35.9,   33.2,   37.2,   42.0,   38.2,   35.4,   38.7,   41.6,   39.8,   39.8,   39.8,   37.8,  999.0,   40.7,   40.7,   40.9,   41.2,  999.0,  999.0,   41.9,   41.9,  999.0,   41.5
2000/10/31 09:10,  999.0,  999.0,  999.0,  999.0,  999.0,    0.1,   -2.5,  999.0,   -2.2,  999.0,  999.0,  999.0,  999.0,  999.0,  999.0,  999.0,  999.0,  999.0,   25.2,   25.9,  999.0,   26.9,   28.2,   28.3,   29.8,   30.0,  999.0,   32.0,   32.7,   34.8,   35.0,   35.8,   37.0,   37.9,   39.6,   39.9,   40.9,   41.8,   42.1,   42.0,   41.8,   41.9,   42.0,   41.9,   41.7,   42.1,   42.3,   41.2,   42.1,   41.6,   41.6,   41.3,   41.6,   41.7,   41.9,   41.7,   41.6,   42.1
2000/10/31 09:20,  999.0,  999.0,  999.0,  999.0,   -1.3,    0.0,   -2.9,   -3.0,  999.0,  999.0,  999.0,  999.0,  999.0,  999.0,  999.0,  999.0,  -22.8,  -25.4,  999.0,  -31.6,  -15.9,   23.1,    3.5,   -3.8,   16.6,   17.8,   19.9,   21.7,    4.5,   11.6,    8.0,   13.9,   10.2,   37.2,   32.1,   39.0,   40.6,   41.6,   20.6,   42.2,   41.8,   41.6,  999.0,   42.0,   27.9,   27.7,   41.7,   34.7,   41.8,   41.9,   42.3,   31.0,   42.4,   42.0,   31.1,   13.3,  999.0,   42.0
2000/10/31 09:30,  999.0,  999.0,  999.0,  999.0,  999.0,   -1.1,  999.0,  999.0,  999.0,  999.0,  999.0,   21.6,   21.9,   21.4,   10.6,   21.6,  -20.5,   23.3,    1.9,    2.0,   12.9,   15.3,   27.2,    7.7,   20.8,   17.9,   27.9,   -0.4,   10.7,   31.3,   12.8,    2.9,   25.2,   35.7,    5.7,   31.3,   39.9,   41.1,   41.4,   34.2,   41.6,   41.8,   42.2,   42.8,  999.0,  999.0,   30.7,   34.4,    9.1,   13.0,  999.0,   42.2,   20.4,    9.6,   31.1,   42.0,   41.6,   41.8
2000/10/31 09:40,  999.0,  999.0,  999.0,  999.0,  999.0,  999.0,  -20.8,  -15.3,  -20.6,  999.0,  -21.4,  -21.5,  -21.6,  -21.4,  -10.4,  999.0,   -0.6,  -25.7,   -4.9,  -30.3,   -9.9,  -34.8,  -36.7,  -17.2,  -40.3,    0.8,  -42.3,  -21.1,    0.4,  -43.0,  -20.7,    0.2,   -6.7,    0.7,    0.6,    0.7,   27.9,   28.5,   41.3,   41.7,   30.5,   18.4,   16.2,   20.9,  999.0,  999.0,    2.0,    9.4,  999.0,    9.9,   33.7,   32.7,   37.6,   41.6,   40.6,   41.7,   21.0,   40.8
2000/10/31 09:50,  999.0,  999.0,  999.0,  999.0,  999.0,   -7.3,  -21.1,  -21.1,  -21.2,  -21.4,  -21.4,  -21.2,  -21.3,  -21.7,  -22.3,  -23.6,  -24.8,  -25.7,  -29.8,  -33.3,  -36.4,  -37.5,  -40.8,  -42.1,  -41.5,  999.0,  999.0,  -41.9,  999.0,  999.0,  -42.4,  -42.0,  999.0,  999.0,   -6.6,    0.6,    0.7,    0.7,    1.1,  -13.3,  -13.5,    0.6,    1.1,    0.6,    0.7,  -10.1,  -13.4,    0.7,    0.4,    0.8,    0.8,    0.5,    1.2,    0.6,    0.6,    0.6,    0.9,    0.4
2000/10/31 10:00,  999.0,  999.0,  999.0,  999.0,  999.0,  999.0,  -20.7,  -21.1,  999.0,  -22.0,  -21.3,  -21.0,  -21.4,  -22.7,  -22.9,  -27.5,  -25.4,  -27.6,  -29.9,  -31.9,  -34.1,  999.0,  999.0,  999.0,  999.0,  999.0,  999.0,  999.0,  999.0,  999.0,  999.0,  999.0,  999.0,  999.0,    1.4,  999.0,    0.5,    1.1,    0.9,    0.7,    1.0,    0.9,    0.7,    1.0,    0.5,    0.4,    0.9,    1.2,    0.7,    0.6,    1.0,    1.0,    1.0,    0.7,    0.5,    1.1,    0.3,    1.0
2000/10/31 10:10,  999.0,  999.0,  999.0,  -22.2,  -22.1,  999.0,  -20.7,  -21.1,  -20.9,  -19.4,  -21.7,  -21.2,  -21.7,  -23.0,  -21.7,  -24.6,  -27.4,  -28.6,  999.0,  -32.6,  -36.7,  999.0,  999.0,  -42.0,  999.0,  -41.5,  -42.2,  -31.0,  -41.3,  999.0,  -41.8,  -41.7,  -27.0,  -41.4,  999.0,  999.0,  999.0,  999.0,    1.1,    0.9,    0.3,    0.6,    0.8,    0.6,    0.8,    1.0,  -13.2,  999.0,  -13.6,    0.6,    1.1,    0.5,  -20.0,  -20.7,    0.7,    0.5,    0.6,    0.7
2000/10/31 10:20,  999.0,  999.0,  999.0,  -19.6,  999.0,  999.0,  -19.9,  -10.7,  -12.6,   -8.4,   -4.2,  -12.4,  -21.7,  -22.3,  -23.8,  999.0,  999.0,  -27.2,  999.0,   -6.0,  -31.0,    2.2,  999.0,   12.7,  999.0,   13.5,    5.1,    7.7,    5.0,    3.9,    9.5,    4.8,    0.8,    3.7,    6.9,    3.6,    3.4,    4.7,    3.9,    1.7,    2.0,    1.0,    0.8,    0.9,    1.0,    0.3,    0.9,    0.6,    1.0,    1.0,    0.8,    0.5,    0.8,    0.6,    0.8,    0.5,    0.7,    0.7
2000/10/31 10:30,  999.0,   -0.6,   -1.4,   -1.9,   -1.9,   -3.9,   -4.4,   -2.4,   -3.0,   -4.3,   -4.7,   -5.4,  999.0,  999.0,  999.0,  999.0,  999.0,   17.4,   -4.2,   16.1,   -7.1,   14.7,    8.2,   -7.3,  -11.7,  -12.8,    0.9,    5.1,  -10.7,    4.5,    4.1,  -11.0,  -11.5,  -11.9,  -15.5,  -12.1,   -5.4,    0.7,  999.0,  -41.5,  999.0,    0.5,  999.0,  999.0,    0.7,    0.2,  -42.6,  -42.1,  999.0,  -41.9,    0.3,  999.0,  -41.7,  -20.7,  -27.8,  -41.6,  999.0,  999.0
2000/10/31 10:40,  999.0,  999.0,  999.0,  999.0,  999.0,   -0.5,  999.0,   -0.7,   -3.9,   -2.3,   -0.5,  999.0,  999.0,   -0.2,   20.7,   20.0,  999.0,   18.1,   18.0,   16.6,   15.2,   13.8,   -1.4,   11.0,    3.2,  -11.8,    0.9,    5.7,    5.7,    3.8,    3.3,    0.7,    1.8,    1.4,    1.4,    1.3,    0.7,  999.0,  999.0,  999.0,  999.0,  999.0,  999.0,  999.0,  999.0,  999.0,  999.0,  999.0,  -41.5,  999.0,  -20.2,  999.0,  999.0,  -42.1,  -42.0,  -41.8,  999.0,  999.0
2000/10/31 10:50,  999.0,  999.0,  999.0,  999.0,  999.0,  999.0,    1.6,    0.6,  999.0,   21.3,   21.1,  999.0,  999.0,   20.9,   -0.4,   19.4,   18.1,   -4.2,   16.2,   14.6,   14.2,   12.7,   10.8,    9.9,    8.1,    7.2,    0.4,    4.8,    4.1,    2.2,    1.8,    1.0,    0.9,    1.0,    0.8,    0.7,    1.1,    0.7,    0.7,    1.0,    1.3,    0.9,    0.4,    0.7,    0.6,    0.8,    1.2,  -20.2,  999.0,    9.0,  999.0,  -41.2,  -41.4,  -40.9,  -41.8,  999.0,  -21.2,  -21.6
2000/10/31 11:00,  999.0,   -3.6,    1.9,    2.8,   -0.4,   -0.7,   -0.2,    0.9,    4.2,  999.0,  999.0,   19.8,   18.9,   18.3,  999.0,   13.6,   15.8,   15.6,   16.6,   13.9,   10.7,   10.0,   10.5,    7.8,    8.5,    4.3,    6.5,    4.0,    4.5,    3.3,    1.1,    0.8,    0.8,    0.9,    1.0,    0.4,    0.6,    0.7,    0.6,    0.3,    0.5,    1.0,    0.7,    0.4,  999.0,    0.3,    0.2,    0.5,    0.8,    1.0,  999.0,  999.0,  999.0,    1.3,  999.0,  -42.2,  -41.8,  999.0
2000/10/31 11:10,  999.0,  999.0,    2.0,    1.2,    0.4,   -1.2,   -1.0,   -0.9,   -1.3,  999.0,   -0.2,  999.0,  -21.0,  -21.4,    9.0,   17.3,    2.7,    4.3,   -0.7,    4.8,   10.0,   -5.7,    6.5,    4.7,    2.8,    1.9,    1.3,    0.3,    0.9,    0.8,    0.7,    0.4,    0.8,    0.6,    0.5,    0.8,    0.9,    0.8,    0.4,    0.7,    0.7,    0.5,    0.6,    0.3,    0.2,    0.7,  999.0,    0.7,    1.1,    0.8,    1.1,    1.0,    0.6,    1.0,    1.3,    0.6,  999.0,  999.0
2000/10/31 11:20,  999.0,  999.0,    0.7,    0.3,   -0.5,   -1.3,   -8.6,  -13.0,  -14.4,  -22.0,   -0.7,   -0.7,   -0.5,  999.0,  999.0,  -25.8,  -27.1,  999.0,  -28.9,  -30.6,  -32.3,  -33.7,  -36.1,  -37.1,  999.0,  -40.8,  -42.0,  -41.6,  -41.8,  -41.7,  -41.5,  -41.6,  -42.1,  -41.2,  999.0,  -41.7,  999.0,   14.2,  999.0,  -20.8,  999.0,  999.0,    0.3,    0.8,    0.9,    0.6,   -5.7,  -11.6,   -2.5,    2.0,   20.7,   12.4,    6.8,    6.2,    7.5,   11.2,    0.6,  999.0
2000/10/31 11:30,   -0.6,    0.9,   -0.1,    0.5,   -0.7,   -0.2,   -0.1,  999.0,   -0.6,  999.0,  999.0,  999.0,  -20.9,  -26.7,  -23.3,  -28.8,  -30.7,  -23.3,  -29.7,  -23.5,  -30.5,  999.0,  -36.7,   -5.6,  -39.6,  -27.8,  999.0,  -32.6,  -42.3,  -41.6,  -39.2,  -41.4,  -41.8,  -41.7,  -41.6,  999.0,  999.0,  999.0,  999.0,  -41.8,  999.0,    0.8,    0.9,    0.7,    0.7,    0.5,  -20.2,    0.6,    1.6,    2.2,   12.8,    8.5,   14.4,    1.1,   14.4,   -0.0,   10.9,   20.7
2000/10/31 11:40,  -25.5,   -8.5,   -2.8,    0.0,   -0.7,   -8.0,  999.0,  999.0,  -20.9,  -21.1,  -21.1,  -21.4,  -21.7,  -21.7,  -22.0,  -22.6,  -23.6,  -24.8,  -26.2,  -27.4,  -28.7,  -30.2,  -31.5,  -32.9,  -34.0,  -35.4,  -36.6,  -38.3,  -38.1,  -40.2,  999.0,  999.0,  999.0,  999.0,  999.0,  999.0,  999.0,  999.0,  999.0,  999.0,  999.0,  999.0,    0.9,    0.8,    0.8,    0.5,    0.8,    1.0,    0.6,    0.5,    0.8,    0.9,    0.8,    0.9,    0.8,    0.8,    0.9,    0.7
2000/10/31 11:50,  -42.1,  -43.5,  999.0,  -16.6,   -1.8,   -3.9,   -1.5,  999.0,   -1.0,  -20.9,  999.0,  999.0,  999.0,  999.0,  999.0,  999.0,  999.0,  999.0,  999.0,  -30.8,  999.0,  -35.0,  -37.1,  -38.4,  -25.6,  -19.5,  -27.3,  -42.4,  -31.3,    1.5,  -20.8,  -20.9,    0.6,    0.7,    0.9,    1.0,    1.0,    1.2,    1.1,  999.0,    0.8,    0.9,    0.4,    0.8,    0.6,    0.8,    0.6,    0.5,    0.2,  999.0,    0.5,    0.9,    0.9,    0.7,    0.8,    0.6,    1.1,    0.7
2000/10/31 12:00,  -41.7,  -41.7,  999.0,  999.0,  999.0,  999.0,  999.0,  -21.0,  999.0,  -22.2,  -21.1,  999.0,  999.0,  999.0,  999.0,  999.0,  999.0,  999.0,  999.0,  -32.1,  999.0,  -36.0,  -37.9,  -39.7,  999.0,  -41.6,  -41.6,  999.0,  999.0,  -41.4,  -41.1,  -41.4,  999.0,  -41.3,  -41.5,  999.0,  999.0,  999.0,    0.8,  999.0,    0.8,    0.4,    1.0,    1.1,    0.4,    0.5,    0.7,    0.9,    0.6,    0.6,  999.0,    0.7,    0.4,    0.6,    0.6,  -20.7,    0.6,  -20.5
2000/10/31 12:10,  999.0,    1.7,    1.8,  999.0,  999.0,  999.0,  999.0,   -8.3,  999.0,   -6.2,  999.0,   -9.6,  999.0,  999.0,  999.0,  999.0,   -6.1,   -8.4,   -7.7,   -8.3,  -10.3,  -11.0,  999.0,  999.0,  999.0,   -6.3,   -5.6,  999.0,   -0.8,  -25.2,  -28.2,  -28.7,  -32.5,  -24.0,  -26.3,  -42.5,  -21.7,  -42.1,  -28.1,   -0.3,    0.4,    0.1,   -0.6,   -0.1,    0.1,    0.1,    0.2,    0.2,   -0.2,   -0.4,   -0.9,   -0.8,  -21.6,  -42.0,  -21.5,  -21.4,  -21.3,  -41.3
2000/10/31 12:20,  999.0,  999.0,  999.0,   -5.2,   -6.4,  -10.1,   -8.8,  999.0,  999.0,   -8.5,   -8.0,   -7.9,   -8.1,   -8.1,   -7.9,   -7.2,   -8.0,   -8.7,   -9.3,  -10.5,  -11.3,  -10.2,   -9.0,   -6.7,   -7.0,   -4.0,   -3.1,   -0.1,    3.0,    6.2,  999.0,    9.2,    9.0,   -0.9,   -0.7,  -14.9,  -20.3,  -14.6,  -10.4,  -10.8,   -4.3,    9.7,  -15.9,   -6.0,  -14.2,   -2.8,    1.0,   -3.1,   -0.3,  -11.2,  -11.5,   20.4,   12.6,    5.8,   -7.5,  -41.0,   20.4,    5.8
2000/10/31 12:30,  999.0,  999.0,   -5.8,   -5.3,   -5.3,   -6.1,   -5.4,   -6.0,   -7.3,   -7.8,   -8.1,   -8.0,   -8.3,   -8.2,   -8.0,   -7.5,   -7.8,   -8.4,   -9.0,   -9.3,   -8.7,   -7.2,   -5.9,   -5.2,   -5.6,   -3.0,   -0.5,    2.5,    3.6,    6.2,  999.0,  999.0,   -0.6,   -0.5,   -0.6,   -0.7,   -0.7,   -1.1,   -0.9,   -0.9,   -0.7,   -0.7,   -0.5,   -0.8,   -0.6,   -0.6,   -0.5,   -0.9,   -1.0,   -0.3,   -0.8,   -0.7,   -0.9,   -0.3,   -0.7,   -0.6,   -1.1,   -0.8
2000/10/31 12:40,  999.0,   -7.1,   -5.5,   -5.6,   -6.5,   -6.4,   -4.9,   -4.8,   -5.8,   -7.0,   -8.0,   -8.1,   -8.3,   -8.6,   -7.3,   -7.4,   -8.1,   -7.9,   -9.7,  -11.0,  -10.9,  999.0,  999.0,  999.0,   -1.0,   -0.3,    3.6,    6.7,  999.0,    7.6,  999.0,   -0.7,   -0.9,   -1.0,   -1.0,   -1.1,   -0.8,   -6.3,   -7.4,   -3.6,   -0.6,   -0.4,  -10.7,   -0.7,   -6.4,   -3.1,   -0.9,   -0.5,   -1.1,   -2.7,   -0.8,  -18.0,   -2.1,  -14.2,  -14.0,   -7.4,   -7.3,   -1.0
2000/10/31 12:50,  999.0,  -10.3,   -7.1,   -6.2,   -7.4,   -9.0,   -8.0,   -6.5,   -7.1,   -7.8,   -8.5,   -9.3,   -9.6,   -9.5,  -10.3,  -11.2,  -12.1,  -12.3,  -12.8,  -15.6,  -16.1,  999.0,   -2.8,  999.0,   -0.5,  999.0,  999.0,  999.0,  999.0,  -12.2,  -36.0,  999.0,  -20.5,  -41.8,  -41.7,  -21.5,  -21.3,  -21.1,  -41.7,  999.0,   41.7,  -41.5,  -20.8,  -42.0,  999.0,  -30.4,  -10.9,   -6.7,  -10.4,   -5.8,  -32.2,  -35.0,  -17.4,  -17.5,  -41.6,  -38.7,  -39.3,    0.2
2000/10/31 13:00,  999.0,  999.0,   -5.9,   -4.0,   -1.6,   -3.1,   -2.3,   -2.5,   -0.4,    1.5,   -3.7,   -2.5,   -3.3,  -10.7,   -4.7,   -3.7,   -5.2,   -5.7,   -4.8,   -2.8,   11.2,  999.0,  999.0,   -6.6,   14.4,   -5.0,   17.1,  999.0,    9.5,  999.0,   -0.8,   -0.7,   -0.8,   23.6,   -0.8,   -1.8,   -4.3,  -23.1,   -9.3,  -13.3,   -2.8,    6.7,   -0.2,    0.3,   12.3,   20.1,    3.2,    3.1,   -5.4,  -18.8,   -9.2,  999.0,   35.8,    1.9,   15.0,  -15.1,  999.0,  999.0
2000/10/31 13:10,  999.0,    1.0,  999.0,    0.7,    0.3,    0.4,    0.2,   -1.5,   -1.6,   -1.6,   -1.5,   -1.0,   -8.6,   -1.7,    2.6,   -0.5,   -0.8,    0.7,   -2.0,   -0.5,   -0.1,    0.8,    2.5,   10.4,   15.7,  999.0,  999.0,  999.0,  999.0,  999.0,  999.0,   -1.5,   38.9,   35.2,   31.3,  999.0,  999.0,   18.7,   15.0,  -11.9,  -14.6,  -20.8,  -27.8,  -23.1,  -31.8,  -34.7,  -28.3,  -35.5,  -39.5,  -31.0,  -42.0,  -27.5,  -34.7,  -41.8,  -34.8,  -41.9,  -34.8,  999.0
2000/10/31 13:20,   16.7,  999.0,  999.0,   -3.1,   -0.3,  999.0,    1.2,    0.3,    1.9,    1.5,   -1.9,   -2.9,   -3.1,   -1.4,   -0.8,   -0.8,   -2.5,   -1.5,   -0.5,   -1.5,   -1.9,    1.1,    0.1,    1.5,    6.6,  999.0,  999.0,  999.0,   16.4,  999.0,  999.0,  999.0,   -0.3,  999.0,  999.0,   -2.6,  999.0,   -8.0,  -10.2,  -13.6,  -15.8,  999.0,   -1.4,  999.0,  -12.1,  -24.8,  -31.3,  -35.2,  -37.1,  -41.8,  -37.5,  -42.1,  -42.0,  -41.3,  -41.9,  -41.9,  -41.1,  -42.2
2000/10/31 13:30,   13.4,  999.0,    6.6,    5.6,   -0.4,    1.6,    3.5,    1.9,    2.8,    0.3,    1.4,    1.2,  999.0,  999.0,    2.8,    6.3,  999.0,    0.1,    5.8,    7.0,    9.3,  999.0,   -0.3,   -0.3,    2.0,    5.5,    4.9,    7.1,  999.0,   -1.7,  999.0,   -2.8,   -5.4,  999.0,  -10.0,  999.0,  999.0,  -16.9,  999.0,  -21.5,  -24.3,  -26.1,  -19.9,   -9.3,  -31.8,  -14.1,  -18.8,   21.6,    0.1,   -5.0,  -38.0,  -11.3,  -26.5,  -42.0,   -0.5,  -25.7,  -21.8,   -9.8
2000/10/31 13:40,    3.1,    2.4,  999.0,   -3.7,    0.9,    3.0,    2.3,    2.9,    6.4,    1.5,    0.0,   -1.0,   -3.5,   -1.9,   -3.2,   -4.4,    0.4,    0.4,   -4.5,   -6.5,   -5.7,   -9.1,  -10.4,  -12.4,  -17.1,  -17.6,  -20.1,  -22.0,  999.0,   -4.1,   -3.4,  999.0,  999.0,    0.7,    1.0,    0.9,    1.4,  999.0,    1.1,    0.9,  999.0,    1.1,    1.1,    0.8,    0.7,    0.8,    0.7,    1.5,    0.9,    0.3,    0.5,    0.8,    0.9,   -0.3,    0.8,    0.7,    0.1,    0.5
2000/10/31 13:50,  999.0,  999.0,  999.0,  999.0,  999.0,    4.6,  999.0,  999.0,    5.5,    6.6,    6.9,   -0.2,    1.5,    3.6,    1.0,    2.3,    0.3,   -0.8,    3.4,   -3.1,    3.2,    4.0,    5.5,    8.5,   14.1,    1.1,  999.0,  999.0,   -0.8,   -0.4,   -0.5,  999.0,  999.0,   -0.7,  999.0,  999.0,   -1.3,  999.0,  999.0,   -0.5,   -0.5,   -1.0,   -0.7,  999.0,   -0.6,   -0.5,  999.0,  999.0,  999.0,  999.0,    0.0,  999.0,   -0.7,  999.0,   -1.6,  999.0,   -0.7,  999.0
2000/10/31 14:00,   11.0,  999.0,  999.0,  999.0,   -1.3,   -1.1,   -1.9,   -1.2,   -4.0,  999.0,  999.0,  999.0,  999.0,   -1.6,   -1.5,   -1.4,  999.0,   -2.3,    0.5,  999.0,    2.7,   -5.4,    7.7,    8.1,    9.4,   -0.6,   16.4,   -0.6,   18.4,  999.0,   -0.6,   -0.8,  999.0,   -0.8,   -0.5,   -1.0,   -0.9,   -0.7,   -0.8,   -1.0,   -0.7,   -0.9,   -0.4,   -0.6,   -0.8,   -0.7,   -1.4,   -0.9,   -0.8,   -1.3,   -2.4,   10.4,   -8.4,  -20.5,    7.1,   41.3,    1.0,   -0.3
2000/10/31 14:10,  999.0,  999.0,    7.7,    0.2,   -0.1,   -0.5,   -1.0,   -0.3,  999.0,   21.3,   21.4,  999.0,   21.1,   21.7,  999.0,  999.0,  999.0,   21.4,   21.0,  999.0,  999.0,   42.1,  999.0,   -6.6,   41.9,   16.4,   -8.2,   -6.9,  999.0,   20.3,   -2.2,   10.3,   10.0,   -0.3,   -1.1,   -0.4,   42.0,   -0.6,   -0.8,    6.4,   -1.4,   13.5,   20.7,   20.3,   42.3,   -1.0,   13.5,   20.5,    6.4,    9.9,   -0.8,   -1.0,   -0.8,   13.0,    9.9,   -0.7,   -0.8,   -0.9
2000/10/31 14:20,    1.1,  999.0,    0.3,   -0.5,   -0.6,   -1.2,   -0.7,   -0.7,  999.0,  999.0,  999.0,  999.0,  999.0,   21.7,  999.0,   21.5,   21.7,   20.9,   21.7,   24.0,   25.5,  999.0,  -17.2,  999.0,  999.0,   12.7,   17.1,   17.4,   12.3,    6.4,   -0.7,   -0.9,   -0.9,   -0.9,   -0.7,   -0.7,   -0.4,   -0.6,   -0.1,   -1.0,   -0.7,   -0.7,   -1.1,  999.0,   -0.5,   -0.5,   -0.9,   20.2,   -0.5,   20.8,   10.2,   -0.8,    6.9,   -0.2,   -0.5,   -0.7,   -0.5,   42.6
2000/10/31 14:30,    1.3,  999.0,  999.0,  999.0,    0.1,   -0.2,   -0.6,   -0.2,   -1.6,  999.0,  -21.1,  -21.2,  -21.2,  -20.9,  -21.6,  -21.5,  999.0,  999.0,  -18.8,  -21.5,  -10.8,  -15.1,   -7.8,   -8.0,   -9.9,  -10.9,   -2.1,   -7.8,   -4.9,  -12.5,   -4.2,   -4.1,   -3.7,   -3.3,   -7.3,   -3.1,   20.2,   -5.9,    9.1,    9.9,   24.1,    3.1,   -0.7,   -0.8,  -11.7,   -8.2,   -5.0,   -9.9,   -0.7,  -15.5,  -17.5,  -10.2,  -21.7,  -21.2,    7.1,    4.9,  -21.2,  -20.9
2000/10/31 14:40,  999.0,  999.0,  999.0,  999.0,  999.0,  999.0,   -0.2,   -0.1,   -0.2,  999.0,  -21.1,  -21.3,  999.0,  -21.5,  -21.7,  -21.7,  -21.4,  -20.1,  -15.7,  -17.1,  -15.1,  -14.8,  -11.5,   -9.9,   -7.5,   -5.8,   -2.7,   -0.7,   -3.1,   -0.7,   -0.6,   -1.2,   -1.4,   -0.7,   -0.5,   -0.7,  999.0,    6.2,   -0.9,   -0.5,   -0.7,   20.7,   -0.1,    6.4,   -0.9,   -0.7,   10.2,   -0.7,   10.3,    6.6,   20.9,   -0.6,   20.4,   13.5,  999.0,   -0.7,   20.2,   -0.9
2000/10/31 14:50,   -3.5,   -8.2,   -5.8,  999.0,  999.0,    4.7,  -21.0,  -16.0,  -20.6,  -18.7,  -20.8,  -20.6,  -20.3,    2.1,   -4.7,  -19.4,  -14.0,    6.2,   12.1,    5.2,    7.4,   -6.6,    3.9,   -1.7,    9.9,   -0.6,   20.5,   13.5,   -0.5,  999.0,    9.8,   -0.7,   13.4,   13.3,   20.5,   -0.8,   -0.8,   -0.9,    5.0,   17.4,   13.6,   17.3,   -0.7,   12.5,   20.5,   -0.8,   20.0,   -4.0,  999.0,   -9.1,  -14.4,   -0.8,   -2.0,   -0.8,   -0.7,   -4.0,   -0.5,   -1.1
2000/10/31 15:00,   -2.3,  -10.6,  -15.1,  999.0,  999.0,  -21.0,  -11.4,  -14.0,  -10.5,  -20.8,  -20.7,  -20.9,  -21.0,  -21.5,  -21.4,  -21.2,  -21.1,  -21.8,  -16.7,  -27.3,  -30.1,  -24.6,  -37.0,  -21.7,  -13.0,  -21.6,  -15.0,   -0.4,   10.3,  -30.5,  999.0,   -0.7,  -38.0,   -1.0,  999.0,  -21.4,  -10.6,    3.7,   -0.4,   -0.1,   -5.1,   -5.7,  -26.9,    4.5,    9.8,   12.2,    4.9,    4.3,    0.5,   -0.7,    4.2,    6.1,   -0.4,   -1.6,  -13.8,  -18.4,  -16.2,   -0.4
2000/10/31 15:10,  -11.8,  999.0,  -20.4,  999.0,   -2.6,  999.0,  -20.7,  -21.7,  -20.5,  -20.7,  -21.2,  -21.0,  -21.0,  -21.0,  -21.4,  -21.3,  -20.0,  -18.1,  -14.4,  -12.0,   -9.2,  -11.6,   -6.8,   -7.7,   -6.5,    8.2,  999.0,   13.0,   42.4,    6.4,   -0.3,    9.6,   20.8,   -0.3,   -0.6,   20.5,   -0.5,   13.6,    6.4,   41.6,   13.7,   -0.4,   42.0,   -0.6,   -1.0,   -0.9,   -0.7,   10.0,    9.8,   -0.8,   -0.8,   -0.8,   -0.8,   -0.4,  -12.6,   -0.7,  -14.6,  -11.4
2000/10/31 15:20,   -5.4,  999.0,  -17.8,  999.0,  999.0,  999.0,  -21.3,  -14.2,  -20.8,  -20.5,  -21.1,  -21.3,  -21.2,  -21.2,  -21.4,  -19.0,  -20.2,  -12.1,  -11.3,  -13.9,   -7.7,   -5.1,   -5.2,   -4.9,   -3.1,   -1.0,   -0.8,  999.0,   -0.7,   -0.5,   -0.7,   -0.7,   -0.9,   -1.2,   -1.4,   -1.4,   -1.0,   -0.8,   -0.9,   -0.9,   -0.4,   -0.6,   -0.6,   -0.6,   -0.7,   -0.9,   -0.9,   -0.9,   -0.8,   -0.8,   -1.3,   -0.5,   -0.9,   -0.7,   -0.4,   -0.4,   -1.0,   -1.0
2000/10/31 15:30,  -13.8,  -20.4,  -21.5,   20.8,  999.0,   -0.2,   -0.1,  -21.0,  -21.4,  -20.6,  -21.0,  -21.2,  -21.2,  -21.1,  -21.8,  -21.0,  -18.6,  -16.6,  -13.7,   -9.3,   -8.0,   -5.2,   -0.9,   -2.9,   -0.5,   -0.3,   -0.6,   -1.1,   -0.8,   -1.3,   -0.9,   -1.2,   -0.4,   -0.8,   -0.6,   20.6,    9.8,   -0.6,   -0.5,   20.1,   20.2,  999.0,   -1.4,   -1.0,   -0.5,   41.5,  999.0,   -1.3,   21.0,   20.8,   20.7,   41.9,   -1.1,  999.0,   -0.3,   -0.9,   -0.8,   20.5
2000/10/31 15:40,   -7.0,  999.0,  -20.8,  -20.5,  999.0,  -21.5,  -14.7,  -16.5,  -20.9,  -21.0,  -21.3,   -7.1,   -7.1,  -21.2,   -7.1,  -19.4,  -18.0,  -15.9,   -6.5,   11.0,    2.2,    2.8,   17.6,   -3.1,   -0.9,   -0.5,   20.4,   10.0,    9.9,   -1.2,   -0.8,   -0.8,   13.8,   13.6,   27.6,    9.9,   20.6,   20.6,   20.3,    9.6,   30.8,   -0.9,   -5.4,    6.1,  -22.8,  -11.4,  -17.1,  -41.5,  -18.9,  -41.8,  -31.1,  -31.1,  -34.7,  -41.7,  -41.8,  -39.0,  -40.9,  -41.7
2000/10/31 15:50,   -8.6,  999.0,  999.0,  999.0,   -0.2,  999.0,  -21.4,  -21.1,  -21.3,  -20.5,  -21.1,  -20.6,  -21.3,  -20.6,  -20.2,  -19.4,  999.0,  -18.0,  -12.8,  -10.8,  -11.0,  -12.0,   -4.7,   -2.6,   -0.9,  999.0,   -1.4,  999.0,   -0.4,   20.7,   13.6,   -0.7,   -0.6,   -0.9,   13.0,   42.2,   -0.8,   -8.1,  -11.2,   20.6,   -8.9,   10.9,   42.0,  -13.5,   -3.4,   15.0,  -27.5,  -32.2,  -18.2,  -42.4,  -14.1,  -14.1,  -41.6,  -12.1,  -21.4,  -41.1,  -41.7,  -41.9
2000/10/31 16:00,    2.3,  -20.5,  999.0,    6.8,   10.3,  -15.7,  -18.6,  -18.9,  -20.5,  -21.0,   -0.1,  -21.0,  -21.7,  -21.8,  -21.4,  -10.2,  -20.6,  999.0,  999.0,  -15.1,  -13.0,  -10.6,  999.0,  999.0,   -1.8,   -0.9,   -0.8,   20.6,  999.0,   -0.3,   41.5,  999.0,   -0.7,  999.0,   41.2,   26.1,   38.2,   -1.0,   17.2,  999.0,   15.4,   29.3,   25.4,   22.1,   22.9,    1.3,   -2.3,   -4.8,   -2.6,   -6.9,    7.1,  -34.2,    5.2,  -23.4,  -17.0,    0.4,    3.4,    2.4
2000/10/31 16:10,   -2.3,  999.0,    1.4,    1.6,  999.0,   -0.4,  -21.5,  -20.6,  -20.9,  999.0,  -20.9,  -21.2,  -10.5,  -21.4,  -21.2,  -21.7,  -21.6,  999.0,   -9.7,  999.0,  999.0,  999.0,  999.0,   -6.1,  999.0,  999.0,  999.0,  999.0,   -0.2,  999.0,  999.0,  999.0,  999.0,  999.0,  999.0,   42.1,  999.0,  999.0,  999.0,   41.9,   41.8,  999.0,  999.0,  999.0,  999.0,  999.0,  999.0,  999.0,   27.2,   17.5,   18.5,   14.3,   13.0,   11.0,    9.1,    6.2,  -11.7,    3.9
2000/10/31 16:20,   15.3,    5.8,    1.9,    1.0,    0.9,   -0.2,   -0.6,    0.3,  999.0,   -0.5,   -2.8,    0.1,   -1.6,   10.3,    6.2,    0.6,   -0.9,   -0.3,    1.3,  999.0,  999.0,  999.0,  999.0,  999.0,  999.0,  999.0,  999.0,  999.0,  999.0,  999.0,  999.0,  999.0,    0.0,  999.0,   -0.4,  999.0,  999.0,   -1.5,  999.0,   -0.5,  999.0,  999.0,   -1.1,  999.0,  999.0,  999.0,  999.0,  999.0,  -17.1,  -20.2,  -20.5,  -24.8,  -27.7,  -28.5,  -32.7,  -35.3,  -36.4,  -40.6
2000/10/31 16:30,   15.6,    9.1,    3.8,    1.0,    0.3,   -0.5,   -2.1,   -0.4,  999.0,   -0.6,   -0.7,  999.0,   -0.7,    0.5,    0.0,   -0.7,    0.4,    0.6,    2.5,  999.0,  999.0,  999.0,  999.0,   -7.9,  999.0,  999.0,   -2.0,   -1.1,   -1.0,   -0.4,   -0.5,    0.2,   -0.9,   -0.4,   -0.7,   -0.6,   -1.0,   -1.0,   -0.6,   -0.8,   -0.7,   -1.2,   -2.7,   -5.8,   -5.9,   -7.3,   -7.2,  -12.6,  -15.5,  999.0,  -20.3,  -24.3,  -27.2,  -30.1,  -32.2,  -36.1,  -38.9,  -41.3
2000/10/31 16:40,   21.5,    2.9,    1.2,    1.1,    0.7,   -0.4,  999.0,  999.0,   -1.3,   -0.6,  999.0,   -0.7,  999.0,   -1.6,   -2.5,   -1.8,    0.4,  999.0,  999.0,  999.0,  999.0,  999.0,   -0.9,  999.0,   -0.3,   -0.4,   -0.9,   -0.9,   -0.8,    0.0,   10.1,   -1.0,   10.1,    5.9,    9.6,   -0.5,   11.9,    2.6,  -10.0,   -2.7,    2.5,   -8.1,   -4.6,  -17.9,  -31.4,  -21.6,  -25.9,  -12.0,  -33.6,  -34.5,  -19.4,  -30.4,  -28.1,  -21.2,  -11.5,  -30.4,  -14.1,  -28.2
2000/10/31 16:50,   13.9,    9.9,    6.5,    4.9,    3.0,    1.3,   -0.9,  999.0,   -0.4,    0.2,  999.0,   -1.1,  999.0,  999.0,  999.0,  -13.5,  999.0,  -18.7,  -16.9,   -4.9,  999.0,  999.0,  999.0,   -0.6,   -4.1,   -5.2,   -2.2,   -0.2,   -0.8,   -0.5,   -0.5,   -0.5,   -0.5,   -0.9,   -1.1,   -0.5,   -1.1,   -0.4,   -0.4,    2.6,   -0.7,    2.7,   -0.9,   20.0,   20.3,   -1.0,    5.9,   20.5,   20.7,    1.9,   -0.5,   -7.8,   -3.8,    2.1,  -10.0,  -10.4,   10.8,    7.1
2000/10/31 17:00,    8.6,    6.3,    3.7,    3.1,    3.2,    2.6,    1.4,    0.8,  999.0,  999.0,  999.0,  999.0,  999.0,  999.0,  999.0,  999.0,  999.0,  999.0,  999.0,  -17.6,  999.0,  -14.3,  -12.5,   -9.1,   -9.9,   -6.4,   -3.2,  999.0,   -1.1,   -0.9,   -1.1,   -0.6,   -0.7,   -0.8,   -0.5,   -1.1,   -0.8,   -0.8,   -1.0,   -1.1,   -0.9,   -0.8,   -0.2,   -0.4,   -4.0,   -0.9,   -1.0,   -0.7,   -0.5,   -0.6,   -0.7,   -0.6,   -0.6,   -0.6,   -0.4,   -1.0,   -0.4,   -0.9
2000/10/31 17:10,    7.4,    1.9,    1.7,    1.7,   -0.1,   -0.6,  999.0,   -1.6,   -4.1,  999.0,   -1.3,   -2.5,   -2.5,   -2.7,  999.0,  999.0,  999.0,  -18.3,  -17.6,  -16.2,  -16.6,  -14.1,  -13.7,  -10.6,  999.0,   -7.7,   -4.4,   -2.7,   -1.9,   -1.0,   -0.5,   -0.5,   -0.5,   -0.4,   -0.3,   -0.6,   -0.8,   -0.3,   -0.9,   -0.8,   -0.4,   -0.7,   -0.6,   -0.6,   -0.9,  999.0,   -0.3,   -0.5,   -0.3,   -0.2,  999.0,   -1.1,   -0.9,   -0.2,   -0.4,   -0.7,  -14.3,   -1.0
2000/10/31 17:20,    8.3,    3.5,    2.0,    1.2,    0.5,   -0.3,   -0.3,   -0.9,   -1.8,   -2.2,   -1.6,  999.0,  999.0,   -2.9,  999.0,  999.0,  999.0,  999.0,  999.0,  999.0,  -13.0,  -11.3,   -9.4,   -9.2,   -7.5,   -6.6,   -4.6,   -4.0,   -4.1,   -1.9,   -1.2,   -0.7,   -1.0,   -0.7,   -1.0,   -0.9,   -0.6,   -0.3,   -0.5,   -0.6,   -0.9,   -0.7,   -0.6,   -0.5,   -0.8,   -0.1,   -0.9,   -1.0,   -0.4,   -0.4,   -0.7,   -0.4,   -1.2,   -1.3,   -1.1,   -0.8,   -0.8,   -0.9
2000/10/31 17:30,    8.2,    4.3,    0.4,    1.2,    1.0,    0.2,    0.3,   -0.1,   -0.3,   -2.1,   -1.2,   -0.4,  999.0,  999.0,   21.0,  999.0,   21.8,  999.0,  999.0,  -19.4,  999.0,  -16.2,  -14.4,  -11.5,  -10.9,   -9.5,   -7.4,   -5.7,   -4.3,   -2.8,   40.2,   13.6,   -0.4,   20.6,    0.3,    9.7,   -0.9,  999.0,   -0.0,   -0.9,   -0.5,   -0.9,   -0.7,    6.6,   20.2,   13.5,   20.6,   20.5,   -0.9,    9.9,   -0.9,   20.7,   -0.7,   20.7,   21.0,   13.4,  999.0,   -1.9
2000/10/31 17:40,    8.2,    2.5,    0.6,    2.0,    1.2,    0.4,    0.1,   -0.5,   -2.0,   -2.2,   -2.6,   -2.3,  999.0,  999.0,  999.0,  999.0,  999.0,  999.0,  999.0,  -18.6,  -15.3,  -13.5,  -13.6,  -11.9,   -8.9,   -6.7,   -5.6,   -3.9,   -2.6,   -0.9,   -0.6,   -0.9,   -0.8,   -0.1,   -0.3,   -0.5,   -0.5,   -1.0,   -1.0,   -0.7,   -0.9,   -0.7,   -0.6,   -1.1,   -0.8,   -0.8,   -0.6,  999.0,   -0.2,  999.0,   -1.0,   -0.4,   -0.4,  999.0,   -0.8,   -1.1,   -0.9,   -1.4
2000/10/31 17:50,    9.0,    2.8,    0.2,    1.8,    1.4,   -0.0,   -0.0,   -0.4,    0.2,    0.0,   -0.9,   -3.1,  999.0,  999.0,  999.0,  999.0,  999.0,  999.0,  999.0,  999.0,  999.0,  999.0,  999.0,  999.0,  999.0,  999.0,  999.0,  -11.8,  -11.1,  -11.7,   -9.2,   -7.3,   -5.2,   -6.8,   -4.7,   -3.7,   -3.5,   -1.1,   -1.0,   -1.5,   -0.9,   -0.7,   -0.8,  999.0,   -0.6,   -1.1,   -0.6,   -0.9,   -1.1,   -0.8,   -0.9,   -1.1,   -1.3,   -1.1,   -0.7,  999.0,  999.0,   -0.2
2000/10/31 18:00,  999.0,  999.0,    3.3,    1.4,    3.5,    2.2,    1.1,   -0.2,   -0.7,   -2.5,   -2.0,   -1.9,  999.0,   -2.2,  999.0,   -3.5,   -2.7,  999.0,  999.0,  999.0,  999.0,  999.0,  999.0,  999.0,  999.0,  999.0,  999.0,  999.0,  999.0,  999.0,  999.0,  999.0,  999.0,  -12.0,  999.0,   -9.3,  -17.8,  999.0,  999.0,   -5.8,   -4.3,  999.0,   -2.4,  999.0,  999.0,   -1.2,   -0.4,  999.0,  999.0,   -0.4,  999.0,   -1.4,  999.0,   -1.0,  999.0,  999.0,  999.0,  999.0
2000/10/31 18:10,  999.0,  999.0,  999.0,  999.0,  999.0,  999.0,   -0.0,   -2.2,   -2.7,   -1.0,   -0.6,   -0.9,   -1.6,   -1.9,   -2.4,   -3.2,   -2.3,   -4.6,   -3.3,   -4.1,   -2.8,   -5.9,  999.0,  999.0,  999.0,  999.0,  999.0,  999.0,  999.0,  999.0,  999.0,  999.0,  999.0,  999.0,  999.0,  999.0,  999.0,  999.0,  999.0,  999.0,  999.0,  999.0,  999.0,  999.0,  999.0,  999.0,  999.0,  999.0,  999.0,  999.0,  999.0,  999.0,  999.0,  999.0,  999.0,  999.0,  999.0,  999.0
2000/10/31 18:20,  999.0,  999.0,  999.0,  999.0,  999.0,  999.0,  999.0,   -0.1,   -0.4,   -0.4,   -1.0,    0.2,   -1.3,   -2.1,   -2.3,   -2.9,   -2.3,   -3.5,   -2.0,   -4.0,   -3.9,   -3.4,  999.0,  999.0,  999.0,  999.0,  999.0,  999.0,  999.0,  999.0,  999.0,  999.0,  999.0,  999.0,  999.0,  999.0,  999.0,  -20.5,  999.0,  999.0,  999.0,  999.0,  999.0,  999.0,  999.0,  999.0,  -20.2,  999.0,  -20.2,  -20.9,  999.0,  999.0,  999.0,  999.0,  -20.6,  999.0,  -20.6,  -20.9
2000/10/31 18:30,  999.0,  999.0,    1.0,  999.0,  999.0,  999.0,    0.7,  999.0,  999.0,  999.0,  999.0,  999.0,  999.0,  999.0,   -1.1,   -0.5,   -0.1,  999.0,   -3.1,  999.0,  999.0,  999.0,  999.0,  999.0,  999.0,  999.0,  999.0,  999.0,  -20.5,  999.0,  -21.1,  999.0,  -20.1,  999.0,  -19.6,  -18.9,  -19.4,  -18.7,  -19.7,  -19.7,  -17.9,  -18.9,  -20.0,  -19.9,  999.0,  -20.0,  -20.1,  999.0,  999.0,  -20.3,  999.0,  -20.3,  999.0,  999.0,  999.0,  999.0,  999.0,  999.0
2000/10/31 18:40,  999.0,  999.0,    2.5,    1.2,  999.0,    0.8,    2.8,  999.0,   -1.7,    1.6,    0.3,  999.0,  999.0,   -2.6,   -2.4,   -5.1,   -2.1,   -4.0,   -3.1,   -2.7,   -3.0,   -2.1,   -0.5,  999.0,  999.0,  999.0,   -1.8,   -1.3,  999.0,  999.0,  999.0,  999.0,  999.0,  999.0,  999.0,  999.0,  999.0,  999.0,  999.0,  999.0,  999.0,  999.0,  999.0,  999.0,  999.0,  999.0,  999.0,  999.0,  999.0,  999.0,  999.0,  999.0,  999.0,  999.0,  999.0,  999.0,  999.0,  999.0
2000/10/31 18:50,  999.0,    1.4,    2.0,    2.1,    0.9,    0.0,  999.0,   -1.2,   -2.4,    3.3,    5.3,   -0.1,  999.0,  999.0,  999.0,  -16.8,  -11.9,   -8.3,   -4.2,   -8.1,    0.7,    0.1,   -5.9,   -4.4,   -4.9,   -6.5,   -8.8,  -10.5,   -8.9,   -8.3,   -9.4,   -0.1,   -2.8,    1.4,    2.4,    2.3,  999.0,  999.0,  999.0,  999.0,  999.0,   -8.4,  999.0,  999.0,  999.0,  999.0,  999.0,  999.0,  999.0,  999.0,  999.0,  999.0,  999.0,  999.0,  999.0,  999.0,  999.0,  999.0
2000/10/31 19:00,  999.0,   -1.1,   -0.0,    1.2,    1.5,    2.8,    0.6,    0.6,   -1.2,  999.0,    4.4,    0.6,   -0.1,    2.6,   -3.8,   -0.3,    2.6,    4.3,    4.7,    3.7,    3.1,    3.7,    2.2,    1.4,    2.1,    0.1,   -0.3,    0.4,   -0.6,   -1.9,   -2.1,    0.9,    2.8,    4.4,    3.9,    5.8,   10.4,   11.8,  999.0,  999.0,  999.0,  999.0,  999.0,  999.0,  999.0,  999.0,  999.0,  999.0,  999.0,  999.0,  999.0,  999.0,  999.0,  999.0,  999.0,  999.0,  999.0,  999.0
2000/10/31 19:10,  999.0,    0.2,    1.9,    1.4,  999.0,  999.0,   -2.0,   -4.0,    0.2,    2.5,    3.6,   -1.7,   -6.0,   -5.7,   -3.3,   -2.7,   -2.1,   -1.5,   -0.0,   -2.6,   -3.8,   -3.6,   -2.2,   -2.5,   -3.6,   -4.1,   -3.0,   -4.7,   -4.3,   -5.4,   -2.0,    1.4,    2.5,    4.6,    6.2,    8.1,    8.3,    8.2,  999.0,  999.0,  999.0,  999.0,  999.0,  999.0,  999.0,   -5.3,  999.0,   -3.6,  999.0,  999.0,  999.0,  999.0,   -0.5,  999.0,  999.0,  999.0,  999.0,  999.0
2000/10/31 19:20,  999.0,  999.0,    4.9,  999.0,    2.2,    1.4,   -5.2,   -0.3,   -0.3,    2.7,    4.3,    4.1,    2.7,    4.7,    4.7,  -15.7,   -6.8,   -5.4,   -8.2,   -8.7,   -7.2,   -5.1,   -4.8,   -5.3,   -6.7,   -6.4,   -5.4,   -3.8,   -1.1,    5.0,    3.9,    3.6,    1.5,  999.0,  999.0,  999.0,  999.0,  999.0,  999.0,    1.2,    0.2,   -1.4,   -1.7,   -1.9,   -2.2,   -2.2,   -2.6,   -1.5,   -1.6,   -1.5,   -0.5,   -0.9,   -0.7,   -0.8,  999.0,   -0.9,   -1.3,   -0.8
2000/10/31 19:30,  999.0,  999.0,    2.2,  999.0,  999.0,   -3.6,    1.2,    0.9,    5.5,    5.1,    3.1,   -4.2,   -7.0,   -5.8,   -4.9,   -5.6,   -3.4,   -3.9,   -3.5,   -2.4,   -3.5,   -3.0,   -2.8,   -1.2,   -1.1,   -0.8,   -0.6,    0.0,    1.8,    3.1,    8.4,   11.0,    8.2,   14.3,  999.0,  999.0,  999.0,  999.0,  999.0,   -1.1,   -1.4,   -0.9,   -1.3,   -1.0,  999.0,  999.0,  999.0,  999.0,  999.0,   -0.2,   -0.5,  999.0,  999.0,  999.0,  999.0,  999.0,   -0.8,   -0.0
2000/10/31 19:40,  999.0,  999.0,   -7.1,  999.0,  999.0,   -4.3,    0.1,    1.8,    2.5,    2.7,    1.8,    1.9,    3.0,    3.6,    2.9,    0.4,   -1.7,   -3.4,   -3.5,   -7.3,   -3.7,   -5.4,   -8.0,   -7.0,   -7.7,   -6.4,   -6.6,   -5.2,   -0.7,   -2.5,   -1.9,    1.9,    0.3,    1.2,  999.0,  999.0,  999.0,  999.0,  999.0,   -0.8,   -0.5,   -0.8,   -0.5,   -0.4,  999.0,   -0.6,   -0.8,   -1.1,   -0.8,   -0.8,  999.0,   -0.7,  999.0,  999.0,   -1.2,  999.0,   -0.5,  999.0
2000/10/31 19:50,  999.0,  999.0,   11.0,  999.0,  999.0,  999.0,    1.6,   -3.1,   -0.9,    1.3,    0.9,   -0.0,    0.7,    2.1,    1.5,    0.5,    0.2,   -3.1,   -2.8,   -1.4,   -2.0,   -0.6,    0.0,   -0.0,   -1.9,    0.3,  999.0,  999.0,    5.4,   13.1,    4.0,  999.0,  999.0,  999.0,  999.0,   -0.2,  999.0,  999.0,  999.0,  999.0,   -0.2,   -0.9,    0.1,  999.0,   -0.8,  999.0,   -0.6,  999.0,   -0.6,   -0.9,  999.0,   -0.7,   -0.7,   -0.7,   -1.3,   -0.5,   -1.1,   -0.6
2000/10/31 20:00,    2.8,    4.3,    2.9,    3.1,    1.6,    2.6,    1.6,    1.6,    1.7,    0.7,    0.5,    0.2,   -0.7,   -1.2,   -0.7,    0.5,  999.0,   -1.2,   -4.5,  999.0,  999.0,  999.0,  999.0,  999.0,  999.0,  999.0,  999.0,  999.0,  999.0,  999.0,  999.0,  999.0,  999.0,  999.0,  999.0,  999.0,  999.0,  999.0,  999.0,  999.0,  999.0,  999.0,   -1.3,   -0.6,   -0.4,   -0.7,  999.0,  999.0,  999.0,   -0.8,   -1.5,  999.0,  999.0,   -0.6,   -0.5,   -0.9,   -0.7,   -1.3
2000/10/31 20:10,   12.6,    9.7,   10.0,    5.5,   -2.4,    2.5,    1.6,    2.1,    3.1,    2.5,    1.3,    0.0,   -1.1,   -1.9,   -2.4,   -1.4,    0.5,  999.0,  999.0,  999.0,  999.0,  999.0,  999.0,  999.0,  999.0,  999.0,  999.0,  999.0,  999.0,  999.0,  999.0,  999.0,  999.0,  999.0,  999.0,  999.0,  999.0,  999.0,  999.0,  999.0,  999.0,  999.0,  999.0,   -1.2,   -0.9,   -1.2,   -1.3,  999.0,   -0.4,   -0.5,   -0.9,   -0.4,  999.0,   -0.7,   -0.5,   -0.8,  999.0,  999.0
2000/10/31 20:20,    9.8,    8.2,    5.5,    3.7,    0.8,    5.0,    0.2,    0.9,    2.3,    3.4,    2.7,    2.8,    1.2,    0.3,    0.7,    0.6,    0.1,   -0.3,   -0.9,   -0.6,   -1.4,   -2.0,   -5.1,   -6.5,  999.0,  999.0,  999.0,  999.0,  999.0,  999.0,  999.0,  999.0,  999.0,  999.0,  999.0,  999.0,  999.0,   -3.0,  999.0,  999.0,  999.0,   -2.1,   -0.8,   -2.5,   -0.6,   -2.8,   -0.3,   -0.7,   -0.9,   -1.3,   -0.4,  999.0,   -0.8,   -0.9,   -0.4,   -0.5,  999.0,  999.0
2000/10/31 20:30,    5.2,    6.6,    6.0,    2.2,   -0.0,   -0.7,   -1.0,   -0.9,    0.5,    0.2,    1.0,    4.0,    4.2,    3.8,    3.2,    2.4,    0.6,    0.2,   -0.6,   -1.9,   -2.6,   -4.0,   -3.8,   -3.3,   -2.9,   -2.8,   -3.2,   -4.1,   -4.0,  999.0,  999.0,  999.0,  999.0,  999.0,  999.0,  999.0,  999.0,  999.0,  999.0,  999.0,  999.0,   -1.2,  999.0,   -2.7,   -1.5,   -1.0,   -0.8,   -0.2,   -0.5,  999.0,  999.0,   -1.0,  999.0,  999.0,  999.0,   -0.9,  999.0,  999.0
2000/10/31 20:40,  999.0,    5.3,    3.6,    2.8,    1.5,    1.1,    1.0,    1.9,    2.9,    2.5,    1.4,    1.1,    1.5,    2.1,    3.0,    3.8,    3.4,    3.3,    2.9,    3.6,    3.8,    3.6,    3.2,    3.1,    2.2,    1.0,   -0.0,    2.0,    1.1,    1.0,   -1.0,  999.0,  999.0,  999.0,  999.0,  999.0,  999.0,  999.0,  999.0,  999.0,  999.0,  999.0,  999.0,  999.0,  999.0,  999.0,  999.0,  999.0,  999.0,  999.0,  999.0,  999.0,  999.0,  999.0,  999.0,  999.0,  999.0,  999.0
2000/10/31 20:50,  999.0,    6.2,    8.0,    3.0,   -1.1,   -2.0,   -2.7,   -1.9,   -1.5,   -0.6,   -0.3,   -0.7,   -2.6,   -2.6,   -2.4,   -3.0,   -2.3,   -3.1,   -2.4,   -0.7,    0.4,    0.7,    0.5,    1.7,    3.1,  999.0,  999.0,  999.0,  999.0,  999.0,  999.0,  999.0,  999.0,  999.0,  999.0,  999.0,  999.0,  999.0,  999.0,  999.0,  999.0,  999.0,  999.0,  999.0,  999.0,  999.0,  999.0,  999.0,  999.0,  999.0,  999.0,  999.0,  999.0,  999.0,  999.0,  999.0,  999.0,  999.0
2000/10/31 21:00,   19.4,   16.2,    9.7,  999.0,  999.0,    1.9,   -3.5,  999.0,  999.0,  999.0,  999.0,  999.0,  999.0,   -6.5,  999.0,  999.0,  999.0,  999.0,  999.0,  999.0,  999.0,  999.0,  999.0,  999.0,  999.0,  999.0,  999.0,  999.0,  999.0,  999.0,  999.0,  999.0,  999.0,  999.0,  999.0,  999.0,  999.0,  999.0,  999.0,  999.0,  999.0,  999.0,  999.0,  999.0,  999.0,  999.0,  999.0,  999.0,  999.0,  999.0,  999.0,  999.0,  999.0,  999.0,  999.0,  999.0,  999.0,  999.0
2000/10/31 21:10,   17.2,   17.4,  999.0,    7.1,  999.0,    0.8,    2.0,    1.4,    2.9,    0.3,  999.0,  999.0,  999.0,  999.0,  999.0,  999.0,  999.0,  999.0,  999.0,  999.0,  999.0,  999.0,  999.0,  999.0,  999.0,  999.0,  999.0,  999.0,  999.0,  999.0,  999.0,  999.0,  999.0,  999.0,  999.0,  999.0,  999.0,  999.0,  999.0,  999.0,  999.0,  999.0,  999.0,  999.0,  999.0,  999.0,  999.0,  999.0,  999.0,  999.0,  999.0,  999.0,  999.0,  999.0,  999.0,  999.0,  999.0,  999.0
2000/10/31 21:20,  999.0,   19.9,   19.1,    3.9,    0.7,    1.1,   -0.2,    4.1,    4.1,  999.0,  999.0,    1.4,    2.2,  999.0,   -0.5,    1.2,    1.0,  999.0,    1.7,    1.8,  999.0,  999.0,  999.0,  999.0,  999.0,  999.0,  999.0,  999.0,  999.0,  999.0,  999.0,  999.0,  999.0,  999.0,  999.0,  999.0,  999.0,  999.0,  999.0,  999.0,  999.0,  999.0,  999.0,  999.0,  999.0,  999.0,  999.0,  999.0,  999.0,  999.0,  999.0,  999.0,  999.0,  999.0,  999.0,  999.0,  999.0,  999.0
2000/10/31 21:30,   15.2,   15.4,   14.8,    8.6,    8.8,  999.0,    2.2,    3.2,    1.1,    3.0,    3.8,  999.0,   -2.3,   -1.0,   -0.1,  999.0,    0.6,  999.0,   -0.2,    0.4,    3.2,    1.1,  999.0,  999.0,  999.0,  999.0,  999.0,  999.0,  999.0,  999.0,  999.0,  999.0,  999.0,  999.0,  999.0,  -11.9,  999.0,  999.0,  999.0,  -22.1,  -20.9,  -21.3,  999.0,  999.0,  999.0,  -20.8,  -21.6,  -21.1,  999.0,  999.0,  -21.1,  999.0,  999.0,  -20.9,  999.0,  999.0,  999.0,  999.0
2000/10/31 21:40,   11.7,    2.7,    1.8,    3.2,  999.0,    0.3,  999.0,  999.0,   -1.7,   -5.5,  999.0,  999.0,  999.0,  999.0,   -6.5,   -6.7,  999.0,  999.0,  999.0,    2.3,   -0.2,    0.3,    0.3,  999.0,  999.0,  999.0,  999.0,  999.0,  999.0,  999.0,  999.0,  999.0,  999.0,  999.0,  999.0,  999.0,  999.0,  999.0,  999.0,  999.0,  -20.2,  999.0,  999.0,  999.0,  999.0,  999.0,  999.0,  999.0,  999.0,  999.0,  999.0,  999.0,  999.0,  999.0,  999.0,  999.0,  999.0,  999.0
2000/10/31 21:50,  999.0,   12.9,    6.7,    2.9,    0.7,    0.4,    0.6,    1.5,    5.7,    8.9,    4.2,    4.2,    0.3,   -3.1,   -2.1,   -0.3,  999.0,  999.0,  999.0,  999.0,  999.0,  999.0,  999.0,  999.0,  999.0,  999.0,  999.0,  999.0,  999.0,  999.0,  999.0,  999.0,  999.0,  999.0,  999.0,  999.0,  999.0,  999.0,  999.0,  999.0,  999.0,  999.0,  999.0,  999.0,  999.0,  999.0,  999.0,  999.0,  999.0,  999.0,  999.0,  999.0,  999.0,  999.0,  999.0,  999.0,  999.0,  999.0
2000/10/31 22:00,  999.0,   14.7,    7.3,    1.4,    0.8,    1.5,    0.5,    2.6,    1.2,    2.6,  999.0,  999.0,   -5.0,  999.0,   -1.2,  999.0,  999.0,  999.0,  999.0,  999.0,  999.0,  999.0,  999.0,  999.0,  999.0,  999.0,  999.0,  999.0,  999.0,  999.0,  999.0,  999.0,  999.0,  999.0,  999.0,  999.0,  999.0,  999.0,  999.0,  999.0,  999.0,  999.0,  999.0,  999.0,  999.0,  999.0,  999.0,  999.0,  999.0,  999.0,  999.0,  999.0,  999.0,  999.0,  999.0,  999.0,  999.0,  999.0
2000/10/31 22:10,  999.0,  999.0,    1.5,    2.3,    2.6,    0.6,    0.8,    1.8,    1.6,    0.2,   -1.3,   -0.6,   -0.3,    1.1,   -5.3,  999.0,  999.0,   -6.4,    0.0,    0.2,    1.5,    1.0,    0.5,   -0.9,   -0.8,   -0.1,  999.0,  999.0,  999.0,  999.0,  999.0,  999.0,  -20.6,  999.0,  999.0,  -21.6,  999.0,  999.0,  -21.4,  999.0,  999.0,  999.0,  999.0,  999.0,  999.0,  999.0,  999.0,  -21.5,  999.0,  999.0,  999.0,  999.0,  999.0,  -22.0,  999.0,  999.0,  999.0,  999.0
2000/10/31 22:20,  999.0,    1.2,   -1.1,   -0.7,   -0.5,    2.2,   -0.4,    0.3,   -3.0,  999.0,    2.6,   -1.5,    0.7,    1.4,   -2.8,   -1.0,  999.0,    0.1,   -0.6,  999.0,  999.0,  999.0,  999.0,  999.0,  999.0,  999.0,  999.0,  999.0,  999.0,  999.0,  999.0,  999.0,  -22.8,  -22.7,  -22.2,  -22.5,  -22.7,  999.0,  999.0,  999.0,  -21.3,  999.0,  -21.7,  999.0,  -21.1,  999.0,  999.0,  -21.1,  -21.3,  -20.7,  999.0,  -21.3,  -21.6,  999.0,  999.0,  999.0,  999.0,  999.0
2000/10/31 22:30,  999.0,  999.0,  999.0,   -0.4,   -1.5,   -1.5,  999.0,  999.0,   -2.1,  999.0,   -5.6,    1.6,  999.0,  999.0,    3.3,  999.0,  999.0,  999.0,  999.0,  999.0,  999.0,  999.0,  999.0,  999.0,  999.0,  999.0,  999.0,  999.0,  999.0,  -14.6,  999.0,  999.0,  999.0,  999.0,  999.0,  -21.4,  999.0,  -21.6,  -22.1,  999.0,  999.0,  999.0,  999.0,  -21.4,  -21.6,  -21.5,  -21.4,  -21.3,  999.0,  999.0,  999.0,  -21.5,  999.0,  -21.5,  999.0,  -21.4,  999.0,  999.0
2000/10/31 22:40,  999.0,    0.0,   -2.0,   -1.5,   -1.3,   -0.4,   -0.5,  999.0,  999.0,    0.4,   -2.5,   -1.8,   -0.7,   -7.1,  999.0,  999.0,  999.0,  999.0,  999.0,  999.0,  999.0,  999.0,  999.0,  999.0,  999.0,  999.0,  999.0,  999.0,  999.0,  999.0,  999.0,  999.0,  999.0,  999.0,  999.0,  999.0,  999.0,  999.0,  999.0,  999.0,  999.0,  999.0,  999.0,  999.0,  999.0,  999.0,  999.0,  999.0,    2.7,    2.7,    3.4,    3.4,    3.1,    3.3,    8.6,  999.0,    2.1,  999.0
2000/10/31 22:50,  999.0,    1.4,   -1.1,   -1.3,   -1.6,   -1.0,   -0.5,    2.2,   -1.0,    2.3,    2.2,    3.3,    2.3,   -0.8,  999.0,  999.0,  999.0,  999.0,  999.0,  -17.7,  -16.4,  -14.8,  -13.4,  -10.9,   -9.8,   -8.3,   -7.4,   -6.8,   -6.4,   -5.0,   -4.3,   -3.0,    1.3,    2.5,    3.0,    4.3,    4.7,    4.6,    3.7,    2.3,    3.0,    4.2,    3.5,    1.7,    2.3,    4.0,    5.3,    5.6,    4.1,    4.7,    4.2,    4.1,    3.6,    4.1,    3.8,    1.3,    4.5,    3.9
2000/10/31 23:00,  999.0,  999.0,   -3.0,   -1.2,   -0.9,    0.2,  999.0,    0.2,    1.3,    2.9,    4.3,  999.0,    0.6,  999.0,  999.0,  999.0,  -17.3,  999.0,  -17.6,  -17.0,  -15.7,  -14.3,  -13.4,  -11.4,   -9.7,   -8.4,   -6.8,   -5.9,   -5.3,   -4.3,   -2.6,    2.0,    0.1,    2.1,    4.2,    6.1,    6.5,    7.4,    8.5,  999.0,    7.9,    9.1,    8.4,  999.0,  999.0,  999.0,  999.0,  999.0,  999.0,  999.0,  999.0,  999.0,  999.0,  999.0,    8.1,    6.3,    5.6,    4.8
2000/10/31 23:10,  999.0,  999.0,   -2.2,   -0.2,   -0.3,   -1.1,  999.0,  999.0,    1.8,    5.0,    4.3,    2.8,  999.0,  999.0,  999.0,  999.0,  999.0,  999.0,  999.0,  999.0,  999.0,  999.0,  999.0,  999.0,  999.0,  999.0,  999.0,  999.0,  999.0,  999.0,  999.0,  999.0,  999.0,  999.0,  999.0,  999.0,    9.1,  999.0,  999.0,  999.0,  999.0,  999.0,  999.0,  999.0,  999.0,  999.0,  999.0,  999.0,  999.0,  999.0,  999.0,  999.0,  999.0,  999.0,  999.0,  999.0,  999.0,  999.0
2000/10/31 23:20,  999.0,   -0.5,   -0.9,   -1.6,    0.2,    0.4,    1.0,    2.6,    3.9,    2.9,    3.9,    2.5,    1.7,   -0.6,  999.0,  999.0,  999.0,  999.0,  999.0,  999.0,  999.0,  999.0,  999.0,  999.0,  999.0,  999.0,  999.0,  999.0,  999.0,  999.0,  999.0,  999.0,  999.0,  999.0,  999.0,  999.0,  999.0,  999.0,  999.0,  999.0,  999.0,  999.0,  999.0,  999.0,  999.0,  999.0,  999.0,  999.0,  999.0,  999.0,  999.0,  999.0,  999.0,  999.0,   21.3,  999.0,  999.0,  999.0
2000/10/31 23:30,  999.0,    2.8,    0.2,   -2.8,    0.4,   -0.4,    1.0,    1.3,    3.0,    2.5,    3.2,    3.7,  999.0,  999.0,  999.0,  999.0,  999.0,  999.0,  999.0,  999.0,  999.0,  999.0,  999.0,  999.0,  999.0,  999.0,  999.0,  999.0,  999.0,  999.0,  999.0,   10.5,  999.0,  999.0,  999.0,  999.0,  999.0,  999.0,  999.0,  999.0,  999.0,  999.0,  999.0,  999.0,  999.0,  999.0,  999.0,  999.0,  999.0,  999.0,  999.0,  999.0,  999.0,  999.0,  999.0,  999.0,  999.0,  999.0
2000/10/31 23:40,  999.0,  999.0,   -0.2,  999.0,  999.0,  999.0,  999.0,   -1.4,    3.3,    1.6,    2.7,  999.0,    2.8,  999.0,  999.0,  999.0,  999.0,  999.0,  999.0,  999.0,  999.0,  999.0,  999.0,  999.0,  999.0,  999.0,  999.0,  999.0,  999.0,  999.0,  999.0,  999.0,  999.0,  999.0,  999.0,  999.0,  999.0,  999.0,  999.0,  999.0,  999.0,  999.0,  999.0,  999.0,  999.0,  999.0,  999.0,  999.0,  999.0,  999.0,  999.0,  999.0,  999.0,  999.0,  999.0,  999.0,  999.0,  999.0
2000/10/31 23:50,  999.0,  999.0,  999.0,    0.5,    0.1,  999.0,  999.0,    2.0,    0.1,    3.0,    3.5,  999.0,  999.0,  999.0,   -5.1,  999.0,  999.0,  999.0,  999.0,  999.0,  999.0,  999.0,  999.0,  999.0,  999.0,  999.0,  999.0,  999.0,  999.0,  999.0,  999.0,  999.0,  999.0,  999.0,  999.0,  999.0,  999.0,  999.0,  999.0,  999.0,  999.0,  999.0,  999.0,  999.0,  999.0,  999.0,  999.0,  999.0,  999.0,  999.0,  999.0,  999.0,  999.0,  999.0,  999.0,  999.0,  999.0,  999.0
